DAL291 LFPG-KLAX

Flight info

Callsign DAL291
Flight time N/A
Altitude 38000
Route ATREX6H/08L ATREX DCT VESAN DCT RATUK DCT SOVAT L613 SANDY DCT OKSAW DCT TEWXI DCT LIPGO DCT REVNU DCT PIKIL/M084F390 DCT 57N020W 58N030W 58N040W 57N050W DCT HOIST/N0486F400 DCT 5430N06000W 53N070W 51N080W 4830N09000W DCT KP12G DCT KP84A DCT KD63U DCT KU51Q DCT PROMT Q88 HAKMN ANJLL4
Aircraft A359/H-SDE2E3GHIJ3J4J5LM1ORWXY/LB1D1

Departure

Time N/A
Airport Charles de Gaulle International Airport (LFPG)

Arrival

Time 2026-04-24 09:48
Airport Los Angeles International Airport (KLAX)
Time Latitude Longitude Altitude Speed Heading
2026-04-24 00:16 54.22852 -9.26627 38330 ft 488 kts 294°
2026-04-24 00:17 54.25326 -9.35311 38330 ft 488 kts 294°
2026-04-24 00:17 54.28289 -9.45757 38328 ft 488 kts 294°
2026-04-24 00:18 54.31248 -9.56233 38328 ft 488 kts 293°
2026-04-24 00:18 54.34670 -9.68413 38321 ft 489 kts 292°
2026-04-24 00:19 54.37135 -9.77224 38316 ft 490 kts 292°
2026-04-24 00:19 54.40053 -9.87698 38314 ft 490 kts 292°
2026-04-24 00:20 54.42983 -9.98262 38314 ft 490 kts 292°
2026-04-24 00:20 54.45907 -10.08840 38313 ft 490 kts 292°
2026-04-24 00:21 54.49249 -10.19097 38308 ft 492 kts 297°
2026-04-24 00:21 54.52709 -10.29177 38310 ft 493 kts 297°
2026-04-24 00:22 54.56218 -10.39347 38307 ft 494 kts 297°
2026-04-24 00:22 54.59716 -10.49539 38303 ft 494 kts 297°
2026-04-24 00:23 54.63197 -10.59745 38303 ft 493 kts 297°
2026-04-24 00:23 54.66644 -10.69903 38300 ft 493 kts 297°
2026-04-24 00:24 54.70104 -10.80141 38300 ft 493 kts 297°
2026-04-24 00:24 54.73554 -10.90391 38305 ft 493 kts 296°
2026-04-24 00:25 54.77003 -11.00684 38302 ft 495 kts 296°
2026-04-24 00:25 54.80424 -11.10932 38298 ft 494 kts 296°
2026-04-24 00:26 54.83852 -11.21247 38297 ft 494 kts 296°
2026-04-24 00:26 54.87277 -11.31598 38299 ft 494 kts 296°
2026-04-24 00:27 54.90690 -11.41955 38293 ft 494 kts 296°
2026-04-24 00:27 54.94070 -11.52257 38295 ft 494 kts 296°
2026-04-24 00:28 54.97465 -11.62648 38300 ft 494 kts 296°
2026-04-24 00:28 55.00849 -11.73049 38287 ft 493 kts 296°
2026-04-24 00:29 55.04222 -11.83464 38293 ft 493 kts 296°
2026-04-24 00:29 55.07563 -11.93822 38287 ft 493 kts 295°
2026-04-24 00:30 55.10916 -12.04264 38287 ft 493 kts 295°
2026-04-24 00:30 55.14261 -12.14727 38287 ft 493 kts 295°
2026-04-24 00:31 55.17598 -12.25209 38285 ft 494 kts 295°
2026-04-24 00:31 55.20929 -12.35718 38285 ft 493 kts 295°
2026-04-24 00:32 55.24225 -12.46164 38280 ft 493 kts 295°
2026-04-24 00:32 55.27536 -12.56703 38283 ft 493 kts 295°
2026-04-24 00:33 55.30834 -12.67247 38285 ft 493 kts 295°
2026-04-24 00:33 55.34127 -12.77818 38277 ft 493 kts 294°
2026-04-24 00:34 55.37385 -12.88328 38285 ft 494 kts 294°
2026-04-24 00:34 55.40666 -12.98957 38276 ft 494 kts 294°
2026-04-24 00:35 55.43938 -13.09604 38278 ft 495 kts 294°
2026-04-24 00:35 55.47201 -13.20272 38279 ft 495 kts 294°
2026-04-24 00:36 55.50434 -13.30886 38270 ft 494 kts 294°
2026-04-24 00:36 55.53679 -13.41590 38271 ft 494 kts 294°
2026-04-24 00:37 55.56911 -13.52296 38282 ft 494 kts 294°
2026-04-24 00:37 55.60137 -13.63037 38268 ft 495 kts 293°
2026-04-24 00:38 55.63333 -13.73724 38271 ft 495 kts 293°
2026-04-24 00:38 55.66542 -13.84499 38271 ft 494 kts 293°
2026-04-24 00:39 55.69738 -13.95286 38271 ft 494 kts 293°
2026-04-24 00:39 55.72924 -14.06087 38265 ft 494 kts 293°
2026-04-24 00:40 55.76103 -14.16911 38273 ft 494 kts 293°
2026-04-24 00:40 55.79251 -14.27682 38264 ft 496 kts 293°
2026-04-24 00:41 55.82420 -14.38576 38262 ft 496 kts 292°
2026-04-24 00:41 55.85579 -14.49485 38265 ft 496 kts 292°
2026-04-24 00:42 55.88728 -14.60408 38261 ft 496 kts 292°
2026-04-24 00:42 55.91845 -14.71275 38266 ft 496 kts 292°
2026-04-24 00:43 55.94974 -14.82231 38273 ft 496 kts 292°
2026-04-24 00:43 55.98094 -14.93214 38263 ft 497 kts 292°
2026-04-24 00:44 56.01177 -15.04277 38257 ft 497 kts 290°
2026-04-24 00:44 56.03766 -15.15686 38255 ft 495 kts 286°
2026-04-24 00:45 56.06178 -15.27124 38252 ft 495 kts 286°
2026-04-24 00:45 56.08658 -15.38618 38251 ft 495 kts 287°
2026-04-24 00:46 56.11181 -15.50085 38253 ft 495 kts 287°
2026-04-24 00:46 56.13711 -15.61569 38241 ft 496 kts 287°
2026-04-24 00:47 56.16225 -15.73044 38239 ft 498 kts 287°
2026-04-24 00:47 56.18742 -15.84613 38261 ft 498 kts 287°
2026-04-24 00:48 56.21248 -15.96201 38260 ft 498 kts 287°
2026-04-24 00:48 56.22496 -16.01994 38442 ft 496 kts 287°
2026-04-24 00:48 56.23735 -16.07762 38690 ft 494 kts 287°
2026-04-24 00:49 56.24968 -16.13520 38873 ft 493 kts 287°
2026-04-24 00:49 56.26180 -16.19197 38990 ft 492 kts 287°
2026-04-24 00:49 56.28627 -16.30713 39084 ft 495 kts 287°
2026-04-24 00:50 56.31077 -16.42311 39222 ft 496 kts 287°
2026-04-24 00:50 56.33533 -16.53993 39235 ft 499 kts 287°
2026-04-24 00:51 56.35965 -16.65626 39235 ft 499 kts 287°
2026-04-24 00:51 56.38399 -16.77335 39241 ft 499 kts 287°
2026-04-24 00:52 56.40821 -16.89059 39233 ft 499 kts 287°
2026-04-24 00:52 56.43233 -17.00805 39239 ft 499 kts 287°
2026-04-24 00:53 56.45610 -17.12449 39230 ft 499 kts 287°
2026-04-24 00:53 56.48001 -17.24224 39229 ft 498 kts 287°
2026-04-24 00:54 56.50375 -17.35990 39228 ft 497 kts 287°
2026-04-24 00:54 56.52734 -17.47750 39227 ft 497 kts 287°
2026-04-24 00:55 56.55068 -17.59454 39225 ft 497 kts 287°
2026-04-24 00:55 56.57405 -17.71247 39226 ft 498 kts 287°
2026-04-24 00:56 56.59741 -17.83108 39224 ft 499 kts 287°
2026-04-24 00:56 56.62068 -17.94988 39224 ft 500 kts 286°
2026-04-24 00:57 56.64381 -18.06869 39229 ft 498 kts 286°
2026-04-24 00:58 56.67805 -18.24592 39219 ft 497 kts 286°
2026-04-24 00:58 56.70085 -18.36491 39222 ft 497 kts 286°
2026-04-24 00:59 56.72346 -18.48362 39216 ft 497 kts 286°
2026-04-24 00:59 56.74584 -18.60182 39216 ft 497 kts 286°
2026-04-24 01:00 56.76827 -18.72102 39219 ft 497 kts 286°
2026-04-24 01:00 56.79057 -18.84033 39212 ft 496 kts 286°
2026-04-24 01:01 56.81269 -18.95935 39221 ft 495 kts 285°
2026-04-24 01:01 56.83467 -19.07843 39222 ft 495 kts 285°
2026-04-24 01:02 56.85642 -19.19703 39208 ft 497 kts 285°
2026-04-24 01:02 56.87829 -19.31698 39213 ft 497 kts 285°
2026-04-24 01:03 56.90004 -19.43708 39208 ft 497 kts 285°
2026-04-24 01:03 56.92167 -19.55725 39208 ft 497 kts 285°
2026-04-24 01:04 56.94303 -19.67669 39207 ft 496 kts 285°
2026-04-24 01:04 56.96437 -19.79683 39217 ft 496 kts 285°
2026-04-24 01:05 56.98560 -19.91719 39200 ft 497 kts 285°
2026-04-24 01:05 57.00664 -20.03808 39202 ft 497 kts 284°
2026-04-24 01:06 57.02434 -20.15973 39203 ft 496 kts 281°
2026-04-24 01:06 57.04080 -20.28278 39197 ft 496 kts 281°
2026-04-24 01:07 57.05753 -20.40566 39203 ft 496 kts 282°
2026-04-24 01:07 57.07453 -20.52868 39201 ft 497 kts 282°
2026-04-24 01:08 57.09147 -20.65130 39194 ft 499 kts 282°
2026-04-24 01:08 57.10843 -20.77502 39191 ft 499 kts 282°
2026-04-24 01:09 57.12526 -20.89896 39190 ft 499 kts 282°
2026-04-24 01:09 57.14196 -21.02301 39191 ft 499 kts 281°
2026-04-24 01:10 57.15843 -21.14633 39180 ft 499 kts 281°
2026-04-24 01:10 57.17487 -21.27059 39189 ft 500 kts 281°
2026-04-24 01:11 57.19126 -21.39545 39179 ft 501 kts 281°
2026-04-24 01:11 57.20753 -21.52042 39183 ft 501 kts 281°
2026-04-24 01:12 57.22357 -21.64461 39174 ft 501 kts 281°
2026-04-24 01:12 57.23956 -21.76958 39174 ft 500 kts 281°
2026-04-24 01:13 57.25544 -21.89471 39180 ft 500 kts 281°
2026-04-24 01:13 57.27120 -22.02008 39173 ft 502 kts 281°
2026-04-24 01:14 57.28688 -22.14586 39172 ft 502 kts 281°
2026-04-24 01:14 57.30235 -22.27099 39171 ft 502 kts 281°
2026-04-24 01:15 57.31777 -22.39696 39170 ft 502 kts 281°
2026-04-24 01:15 57.33308 -22.52309 39163 ft 502 kts 281°
2026-04-24 01:16 57.34826 -22.64929 39189 ft 502 kts 281°
2026-04-24 01:16 57.36324 -22.77498 39171 ft 504 kts 280°
2026-04-24 01:17 57.37823 -22.90199 39158 ft 505 kts 280°
2026-04-24 01:17 57.39310 -23.02906 39164 ft 505 kts 280°
2026-04-24 01:18 57.40784 -23.15630 39159 ft 505 kts 280°
2026-04-24 01:18 57.42236 -23.28281 39162 ft 505 kts 280°
2026-04-24 01:19 57.43684 -23.41021 39165 ft 505 kts 280°
2026-04-24 01:19 57.45124 -23.53814 39156 ft 507 kts 280°
2026-04-24 01:20 57.46554 -23.66641 39146 ft 507 kts 279°
2026-04-24 01:20 57.47961 -23.79386 39150 ft 507 kts 279°
2026-04-24 01:21 57.49363 -23.92216 39153 ft 507 kts 279°
2026-04-24 01:21 57.50753 -24.05071 39144 ft 507 kts 279°
2026-04-24 01:22 57.52131 -24.17936 39152 ft 508 kts 279°
2026-04-24 01:22 57.53491 -24.30769 39137 ft 509 kts 279°
2026-04-24 01:23 57.54848 -24.43710 39140 ft 510 kts 279°
2026-04-24 01:23 57.56194 -24.56677 39140 ft 510 kts 279°
2026-04-24 01:24 57.57526 -24.69645 39140 ft 510 kts 279°
2026-04-24 01:24 57.58844 -24.82618 39140 ft 510 kts 279°
2026-04-24 01:25 57.60140 -24.95520 39133 ft 511 kts 279°
2026-04-24 01:25 57.61438 -25.08580 39135 ft 512 kts 279°
2026-04-24 01:26 57.62722 -25.21639 39137 ft 512 kts 279°
2026-04-24 01:26 57.63992 -25.34710 39136 ft 512 kts 279°
2026-04-24 01:27 57.65243 -25.47726 39133 ft 513 kts 278°
2026-04-24 01:27 57.66488 -25.60833 39134 ft 512 kts 278°
2026-04-24 01:28 57.67719 -25.73941 39129 ft 513 kts 278°
2026-04-24 01:28 57.68938 -25.87072 39130 ft 513 kts 278°
2026-04-24 01:29 57.70120 -25.99963 39132 ft 513 kts 278°
2026-04-24 01:29 57.71311 -26.13102 39128 ft 513 kts 278°
2026-04-24 01:30 57.72489 -26.26258 39123 ft 513 kts 278°
2026-04-24 01:30 57.73653 -26.39428 39125 ft 514 kts 278°
2026-04-24 01:31 57.74800 -26.52554 39127 ft 515 kts 278°
2026-04-24 01:31 57.75940 -26.65776 39116 ft 514 kts 278°
2026-04-24 01:32 57.77068 -26.79013 39112 ft 515 kts 278°
2026-04-24 01:32 57.78182 -26.92265 39118 ft 515 kts 278°
2026-04-24 01:33 57.79274 -27.05421 39115 ft 514 kts 277°
2026-04-24 01:33 57.80360 -27.18690 39112 ft 516 kts 277°
2026-04-24 01:34 57.81435 -27.31998 39113 ft 516 kts 278°
2026-04-24 01:34 57.82496 -27.45314 39116 ft 516 kts 277°
2026-04-24 01:35 57.83537 -27.58553 39110 ft 516 kts 277°
2026-04-24 01:35 57.84570 -27.71879 39116 ft 516 kts 277°
2026-04-24 01:36 57.85590 -27.85221 39119 ft 517 kts 277°
2026-04-24 01:36 57.86596 -27.98586 39100 ft 517 kts 277°
2026-04-24 01:37 57.87591 -28.11977 39102 ft 518 kts 277°
2026-04-24 01:37 57.88564 -28.25284 39099 ft 518 kts 277°
2026-04-24 01:38 57.89529 -28.38678 39112 ft 517 kts 277°
2026-04-24 01:38 57.90482 -28.52097 39102 ft 518 kts 277°
2026-04-24 01:39 57.91419 -28.65520 39098 ft 518 kts 277°
2026-04-24 01:39 57.92338 -28.78874 39112 ft 519 kts 277°
2026-04-24 01:40 57.93249 -28.92330 39108 ft 519 kts 277°
2026-04-24 01:40 57.94146 -29.05797 39091 ft 519 kts 276°
2026-04-24 01:41 57.95029 -29.19276 39098 ft 519 kts 276°
2026-04-24 01:41 57.95892 -29.32663 39106 ft 519 kts 276°
2026-04-24 01:42 57.96747 -29.46166 39092 ft 520 kts 276°
2026-04-24 01:42 57.97589 -29.59686 39103 ft 520 kts 276°
2026-04-24 01:43 57.98418 -29.73231 39097 ft 520 kts 276°
2026-04-24 01:43 57.99232 -29.86774 39097 ft 520 kts 276°
2026-04-24 01:44 58.00026 -30.00240 39100 ft 520 kts 276°
2026-04-24 01:44 58.00657 -30.13820 39102 ft 520 kts 273°
2026-04-24 01:45 58.01112 -30.27438 39087 ft 521 kts 273°
2026-04-24 01:45 58.01567 -30.41080 39097 ft 521 kts 273°
2026-04-24 01:46 58.02040 -30.54715 39094 ft 521 kts 273°
2026-04-24 01:46 58.02507 -30.68260 39091 ft 521 kts 273°
2026-04-24 01:47 58.02965 -30.81896 39094 ft 521 kts 273°
2026-04-24 01:47 58.03406 -30.95549 39083 ft 522 kts 273°
2026-04-24 01:48 58.03833 -31.09220 39089 ft 522 kts 273°
2026-04-24 01:48 58.04243 -31.22805 39075 ft 522 kts 273°
2026-04-24 01:49 58.04639 -31.36466 39082 ft 522 kts 272°
2026-04-24 01:49 58.05022 -31.50140 39081 ft 522 kts 272°
2026-04-24 01:50 58.05391 -31.63826 39088 ft 522 kts 272°
2026-04-24 01:50 58.05744 -31.77517 39088 ft 522 kts 272°
2026-04-24 01:51 58.06081 -31.91122 39086 ft 523 kts 272°
2026-04-24 01:51 58.06406 -32.04837 39078 ft 522 kts 272°
2026-04-24 01:52 58.06716 -32.18544 39084 ft 523 kts 272°
2026-04-24 01:52 58.07011 -32.32250 39074 ft 522 kts 272°
2026-04-24 01:53 58.07289 -32.45858 39083 ft 522 kts 272°
2026-04-24 01:53 58.07555 -32.59568 39087 ft 522 kts 272°
2026-04-24 01:54 58.07806 -32.73282 39090 ft 523 kts 272°
2026-04-24 01:54 58.08041 -32.86912 39089 ft 522 kts 271°
2026-04-24 01:55 58.08263 -33.00621 39091 ft 522 kts 271°
2026-04-24 01:55 58.08470 -33.14347 39097 ft 522 kts 271°
2026-04-24 01:56 58.08662 -33.28066 39090 ft 522 kts 271°
2026-04-24 01:56 58.08839 -33.41787 39090 ft 522 kts 271°
2026-04-24 01:57 58.09001 -33.55413 39088 ft 522 kts 271°
2026-04-24 01:57 58.09148 -33.69113 39091 ft 522 kts 271°
2026-04-24 01:58 58.09282 -33.82831 39104 ft 522 kts 271°
2026-04-24 01:58 58.09400 -33.96552 39102 ft 522 kts 271°
2026-04-24 01:59 58.09503 -34.10192 39097 ft 522 kts 270°
2026-04-24 01:59 58.09592 -34.23917 39104 ft 522 kts 270°
2026-04-24 02:00 58.09667 -34.37648 39104 ft 522 kts 270°
2026-04-24 02:00 58.09727 -34.51370 39089 ft 522 kts 270°
2026-04-24 02:01 58.09772 -34.65100 39101 ft 522 kts 270°
2026-04-24 02:01 58.09801 -34.78732 39099 ft 522 kts 270°
2026-04-24 02:02 58.09817 -34.92452 39097 ft 522 kts 270°
2026-04-24 02:02 58.09817 -35.06186 39098 ft 522 kts 270°
2026-04-24 02:03 58.09791 -35.26673 39108 ft 522 kts 269°
2026-04-24 02:03 58.09755 -35.40391 39102 ft 522 kts 269°
2026-04-24 02:04 58.09704 -35.54121 39106 ft 522 kts 269°
2026-04-24 02:04 58.09639 -35.67843 39108 ft 522 kts 269°
2026-04-24 02:05 58.09559 -35.81472 39106 ft 522 kts 269°
2026-04-24 02:05 58.09464 -35.95190 39119 ft 522 kts 269°
2026-04-24 02:06 58.09354 -36.08902 39134 ft 522 kts 269°
2026-04-24 02:06 58.09230 -36.22619 39121 ft 522 kts 269°
2026-04-24 02:07 58.09092 -36.36245 39113 ft 522 kts 268°
2026-04-24 02:07 58.08938 -36.49954 39126 ft 522 kts 268°
2026-04-24 02:08 58.08769 -36.63671 39120 ft 522 kts 268°
2026-04-24 02:08 58.08586 -36.77372 39116 ft 521 kts 268°
2026-04-24 02:09 58.08390 -36.90986 39135 ft 522 kts 268°
2026-04-24 02:09 58.08178 -37.04678 39137 ft 521 kts 268°
2026-04-24 02:10 58.07951 -37.18375 39125 ft 521 kts 268°
2026-04-24 02:10 58.07709 -37.32058 39136 ft 521 kts 268°
2026-04-24 02:11 58.07453 -37.45749 39130 ft 521 kts 268°
2026-04-24 02:11 58.07183 -37.59347 39143 ft 522 kts 267°
2026-04-24 02:12 58.06898 -37.73032 39138 ft 521 kts 267°
2026-04-24 02:12 58.06598 -37.86680 39140 ft 520 kts 267°
2026-04-24 02:13 58.06284 -38.00310 39140 ft 519 kts 267°
2026-04-24 02:13 58.05959 -38.13835 39146 ft 519 kts 267°
2026-04-24 02:14 58.05616 -38.27465 39146 ft 519 kts 267°
2026-04-24 02:14 58.05258 -38.41093 39146 ft 519 kts 267°
2026-04-24 02:15 58.04889 -38.54618 39154 ft 519 kts 266°
2026-04-24 02:15 58.04503 -38.68234 39148 ft 519 kts 266°
2026-04-24 02:16 58.04102 -38.81839 39151 ft 519 kts 266°
2026-04-24 02:16 58.03687 -38.95450 39152 ft 519 kts 266°
2026-04-24 02:17 58.03258 -39.09045 39161 ft 519 kts 266°
2026-04-24 02:17 58.02817 -39.22544 39151 ft 519 kts 266°
2026-04-24 02:18 58.02359 -39.36138 39154 ft 519 kts 266°
2026-04-24 02:18 58.01886 -39.49727 39162 ft 519 kts 266°
2026-04-24 02:19 58.01399 -39.63308 39160 ft 519 kts 265°
2026-04-24 02:19 58.00901 -39.76787 39159 ft 519 kts 265°
2026-04-24 02:20 58.00384 -39.90369 39168 ft 519 kts 265°
2026-04-24 02:20 57.99845 -40.03950 39167 ft 520 kts 264°
2026-04-24 02:21 57.99072 -40.17495 39165 ft 520 kts 263°
2026-04-24 02:21 57.98199 -40.30926 39173 ft 520 kts 262°
2026-04-24 02:22 57.97333 -40.44445 39173 ft 520 kts 263°
2026-04-24 02:22 57.96480 -40.57958 39173 ft 520 kts 263°
2026-04-24 02:23 57.95621 -40.71476 39181 ft 520 kts 263°
2026-04-24 02:23 57.94755 -40.84882 39181 ft 520 kts 262°
2026-04-24 02:24 57.93866 -40.98381 39175 ft 519 kts 262°
2026-04-24 02:24 57.92963 -41.11875 39175 ft 519 kts 262°
2026-04-24 02:25 57.92046 -41.25347 39186 ft 519 kts 262°
2026-04-24 02:25 57.91120 -41.38735 39184 ft 519 kts 262°
2026-04-24 02:26 57.90175 -41.52198 39181 ft 519 kts 262°
2026-04-24 02:26 57.89215 -41.65654 39178 ft 519 kts 262°
2026-04-24 02:27 57.88242 -41.79093 39179 ft 519 kts 262°
2026-04-24 02:27 57.87254 -41.92532 39173 ft 519 kts 261°
2026-04-24 02:28 57.86259 -42.05872 39182 ft 519 kts 261°
2026-04-24 02:28 57.85241 -42.19318 39179 ft 520 kts 261°
2026-04-24 02:29 57.84209 -42.32757 39178 ft 520 kts 261°
2026-04-24 02:29 57.83162 -42.46190 39176 ft 520 kts 261°
2026-04-24 02:30 57.82109 -42.59524 39184 ft 520 kts 261°
2026-04-24 02:30 57.81034 -42.72944 39186 ft 520 kts 261°
2026-04-24 02:31 57.79946 -42.86347 39178 ft 520 kts 261°
2026-04-24 02:31 57.78844 -42.99735 39184 ft 520 kts 260°
2026-04-24 02:32 57.77735 -43.13022 39169 ft 520 kts 260°
2026-04-24 02:32 57.76604 -43.26411 39178 ft 521 kts 260°
2026-04-24 02:33 57.75457 -43.39804 39198 ft 521 kts 260°
2026-04-24 02:33 57.74295 -43.53201 39184 ft 521 kts 260°
2026-04-24 02:34 57.73121 -43.66573 39184 ft 521 kts 260°
2026-04-24 02:34 57.71940 -43.79842 39192 ft 521 kts 259°
2026-04-24 02:35 57.70737 -43.93207 39189 ft 521 kts 259°
2026-04-24 02:35 57.69520 -44.06552 39189 ft 521 kts 259°
2026-04-24 02:36 57.68289 -44.19889 39185 ft 521 kts 259°
2026-04-24 02:36 57.67052 -44.33133 39189 ft 521 kts 259°
2026-04-24 02:37 57.65792 -44.46464 39189 ft 521 kts 259°
2026-04-24 02:37 57.64518 -44.59794 39189 ft 521 kts 259°
2026-04-24 02:38 57.63229 -44.73116 39192 ft 521 kts 259°
2026-04-24 02:38 57.61935 -44.86339 39200 ft 521 kts 258°
2026-04-24 02:39 57.60620 -44.99622 39184 ft 521 kts 258°
2026-04-24 02:39 57.59291 -45.12903 39195 ft 521 kts 258°
2026-04-24 02:40 57.57948 -45.26167 39195 ft 521 kts 258°
2026-04-24 02:40 57.56600 -45.39333 39188 ft 521 kts 258°
2026-04-24 02:41 57.55228 -45.52598 39194 ft 522 kts 258°
2026-04-24 02:41 57.53842 -45.65856 39194 ft 522 kts 258°
2026-04-24 02:42 57.52442 -45.79098 39192 ft 521 kts 258°
2026-04-24 02:42 57.51028 -45.92327 39192 ft 521 kts 257°
2026-04-24 02:43 57.49612 -46.05447 39194 ft 521 kts 257°
2026-04-24 02:43 57.48171 -46.18653 39207 ft 521 kts 257°
2026-04-24 02:44 57.46717 -46.31843 39195 ft 521 kts 257°
2026-04-24 02:44 57.45249 -46.45020 39194 ft 521 kts 257°
2026-04-24 02:45 57.43778 -46.58102 39197 ft 522 kts 257°
2026-04-24 02:45 57.42281 -46.71275 39194 ft 522 kts 257°
2026-04-24 02:46 57.40770 -46.84445 39200 ft 522 kts 257°
2026-04-24 02:46 57.39248 -46.97581 39195 ft 521 kts 257°
2026-04-24 02:47 57.37721 -47.10629 39194 ft 521 kts 257°
2026-04-24 02:47 57.36172 -47.23736 39195 ft 521 kts 256°
2026-04-24 02:48 57.34607 -47.36848 39203 ft 521 kts 256°
2026-04-24 02:48 57.33041 -47.49854 39192 ft 521 kts 256°
2026-04-24 02:49 57.31449 -47.62944 39200 ft 522 kts 256°
2026-04-24 02:49 57.29843 -47.76032 39203 ft 522 kts 256°
2026-04-24 02:50 57.28223 -47.89115 39203 ft 522 kts 256°
2026-04-24 02:50 57.26590 -48.02173 39197 ft 522 kts 256°
2026-04-24 02:51 57.24954 -48.15145 39206 ft 522 kts 256°
2026-04-24 02:51 57.23293 -48.28190 39204 ft 522 kts 256°
2026-04-24 02:52 57.21618 -48.41226 39200 ft 522 kts 255°
2026-04-24 02:52 57.19932 -48.54237 39197 ft 522 kts 255°
2026-04-24 02:53 57.18242 -48.67163 39203 ft 523 kts 255°
2026-04-24 02:53 57.16523 -48.80192 39197 ft 523 kts 255°
2026-04-24 02:54 57.14792 -48.93204 39212 ft 523 kts 255°
2026-04-24 02:54 57.13047 -49.06202 39203 ft 523 kts 255°
2026-04-24 02:55 57.11289 -49.19187 39203 ft 523 kts 255°
2026-04-24 02:55 57.09530 -49.32068 39200 ft 523 kts 255°
2026-04-24 02:56 57.07746 -49.45024 39205 ft 523 kts 255°
2026-04-24 02:56 57.05949 -49.57961 39206 ft 523 kts 255°
2026-04-24 02:57 57.04136 -49.70908 39200 ft 524 kts 255°
2026-04-24 02:57 57.02319 -49.83774 39205 ft 524 kts 254°
2026-04-24 02:58 57.00458 -49.96718 39199 ft 524 kts 252°
2026-04-24 02:58 56.97827 -50.09147 39203 ft 523 kts 245°
2026-04-24 02:59 56.94910 -50.21343 39202 ft 523 kts 244°
2026-04-24 02:59 56.91955 -50.33406 39200 ft 522 kts 244°
2026-04-24 03:00 56.88978 -50.45532 39202 ft 522 kts 244°
2026-04-24 03:00 56.86000 -50.57653 39197 ft 523 kts 244°
2026-04-24 03:01 56.83014 -50.69755 39192 ft 522 kts 244°
2026-04-24 03:01 56.80019 -50.81827 39187 ft 522 kts 244°
2026-04-24 03:02 56.77031 -50.93803 39197 ft 523 kts 244°
2026-04-24 03:02 56.74005 -51.05867 39192 ft 523 kts 244°
2026-04-24 03:03 56.70969 -51.17902 39192 ft 523 kts 244°
2026-04-24 03:03 56.67923 -51.29913 39187 ft 523 kts 244°
2026-04-24 03:04 56.64885 -51.41828 39189 ft 523 kts 244°
2026-04-24 03:04 56.61816 -51.53801 39190 ft 523 kts 244°
2026-04-24 03:05 56.58734 -51.65759 39187 ft 523 kts 243°
2026-04-24 03:05 56.55643 -51.77688 39174 ft 523 kts 243°
2026-04-24 03:06 56.52559 -51.89528 39185 ft 523 kts 243°
2026-04-24 03:06 56.49448 -52.01406 39179 ft 522 kts 243°
2026-04-24 03:07 56.46323 -52.13280 39183 ft 522 kts 243°
2026-04-24 03:07 56.43189 -52.25122 39179 ft 522 kts 243°
2026-04-24 03:08 56.38486 -52.42777 39183 ft 522 kts 243°
2026-04-24 03:09 56.35323 -52.54575 39169 ft 522 kts 243°
2026-04-24 03:09 56.32149 -52.66353 39169 ft 522 kts 243°
2026-04-24 03:10 56.28962 -52.78117 39163 ft 522 kts 243°
2026-04-24 03:10 56.25766 -52.89854 39165 ft 522 kts 243°
2026-04-24 03:11 56.22577 -53.01503 39159 ft 522 kts 243°
2026-04-24 03:11 56.19356 -53.13212 39152 ft 523 kts 242°
2026-04-24 03:12 56.16124 -53.24903 39152 ft 523 kts 242°
2026-04-24 03:12 56.12883 -53.36565 39155 ft 523 kts 242°
2026-04-24 03:13 56.09650 -53.48136 39147 ft 523 kts 242°
2026-04-24 03:13 56.06382 -53.59779 39151 ft 523 kts 242°
2026-04-24 03:14 56.03101 -53.71406 39147 ft 524 kts 242°
2026-04-24 03:14 55.99812 -53.83006 39146 ft 523 kts 242°
2026-04-24 03:15 55.96530 -53.94522 39142 ft 523 kts 242°
2026-04-24 03:15 55.93219 -54.06079 39147 ft 523 kts 242°
2026-04-24 03:16 55.89892 -54.17640 39148 ft 524 kts 242°
2026-04-24 03:16 55.86555 -54.29174 39141 ft 524 kts 242°
2026-04-24 03:17 55.83230 -54.40614 39141 ft 524 kts 242°
2026-04-24 03:17 55.79874 -54.52102 39149 ft 524 kts 241°
2026-04-24 03:18 55.76505 -54.63576 39136 ft 524 kts 241°
2026-04-24 03:18 55.73698 -54.73095 39135 ft 524 kts 241°
2026-04-24 03:19 55.70305 -54.84549 39130 ft 524 kts 241°
2026-04-24 03:19 55.66350 -54.97833 39133 ft 525 kts 241°
2026-04-24 03:20 55.62934 -55.09246 39127 ft 524 kts 241°
2026-04-24 03:20 55.60087 -55.18714 39124 ft 524 kts 241°
2026-04-24 03:21 55.56655 -55.30077 39114 ft 524 kts 241°
2026-04-24 03:21 55.53211 -55.41428 39116 ft 524 kts 240°
2026-04-24 03:22 55.49778 -55.52687 39118 ft 524 kts 240°
2026-04-24 03:22 55.46315 -55.63990 39115 ft 524 kts 240°
2026-04-24 03:23 55.42847 -55.75258 39114 ft 523 kts 240°
2026-04-24 03:23 55.38804 -55.88326 39106 ft 523 kts 240°
2026-04-24 03:24 55.35877 -55.97740 39182 ft 523 kts 240°
2026-04-24 03:24 55.34154 -56.03265 39303 ft 523 kts 240°
2026-04-24 03:24 55.32404 -56.08865 39474 ft 522 kts 240°
2026-04-24 03:24 55.30654 -56.14450 39621 ft 521 kts 240°
2026-04-24 03:25 55.28906 -56.20018 39744 ft 521 kts 240°
2026-04-24 03:25 55.27158 -56.25569 39856 ft 521 kts 240°
2026-04-24 03:25 55.25405 -56.31127 39966 ft 520 kts 240°
2026-04-24 03:26 55.21892 -56.42224 40093 ft 522 kts 240°
2026-04-24 03:26 55.18381 -56.53260 40105 ft 522 kts 240°
2026-04-24 03:27 55.14843 -56.64336 40099 ft 521 kts 240°
2026-04-24 03:27 55.11299 -56.75375 40097 ft 521 kts 239°
2026-04-24 03:28 55.07747 -56.86390 40092 ft 521 kts 239°
2026-04-24 03:28 55.04261 -56.97364 40096 ft 521 kts 244°
2026-04-24 03:29 55.01800 -57.09236 40092 ft 521 kts 253°
2026-04-24 03:29 54.99766 -57.21352 40096 ft 522 kts 254°
2026-04-24 03:30 54.97467 -57.35472 40087 ft 522 kts 254°
2026-04-24 03:30 54.95799 -57.45563 40094 ft 522 kts 253°
2026-04-24 03:31 54.93768 -57.57676 40089 ft 522 kts 253°
2026-04-24 03:31 54.91718 -57.69777 40096 ft 522 kts 253°
2026-04-24 03:32 54.89652 -57.81880 40093 ft 522 kts 253°
2026-04-24 03:32 54.87577 -57.93966 40089 ft 522 kts 253°
2026-04-24 03:33 54.85502 -58.05970 40086 ft 523 kts 253°
2026-04-24 03:33 54.83400 -58.18055 40086 ft 523 kts 253°
2026-04-24 03:34 54.81285 -58.30127 40087 ft 523 kts 253°
2026-04-24 03:34 54.79156 -58.42196 40087 ft 524 kts 253°
2026-04-24 03:35 54.77030 -58.54174 40085 ft 524 kts 253°
2026-04-24 03:35 54.74878 -58.66219 40084 ft 524 kts 253°
2026-04-24 03:36 54.72712 -58.78255 40058 ft 524 kts 253°
2026-04-24 03:36 54.70535 -58.90280 40074 ft 524 kts 253°
2026-04-24 03:37 54.68357 -59.02229 40086 ft 525 kts 253°
2026-04-24 03:37 54.66152 -59.14251 40076 ft 525 kts 252°
2026-04-24 03:38 54.63934 -59.26261 40057 ft 525 kts 252°
2026-04-24 03:38 54.61707 -59.38248 40056 ft 525 kts 252°
2026-04-24 03:39 54.59482 -59.50143 40071 ft 525 kts 252°
2026-04-24 03:39 54.57230 -59.62110 40062 ft 524 kts 252°
2026-04-24 03:40 54.54606 -59.75956 40064 ft 522 kts 252°
2026-04-24 03:40 54.52707 -59.85915 40056 ft 522 kts 252°
2026-04-24 03:41 54.50475 -59.97715 40052 ft 522 kts 255°
2026-04-24 03:41 54.48952 -60.09911 40056 ft 521 kts 260°
2026-04-24 03:42 54.47640 -60.22171 40051 ft 521 kts 261°
2026-04-24 03:42 54.46356 -60.34429 40042 ft 520 kts 261°
2026-04-24 03:43 54.45062 -60.46571 40046 ft 520 kts 260°
2026-04-24 03:43 54.43738 -60.58774 40057 ft 520 kts 260°
2026-04-24 03:44 54.42398 -60.70972 40056 ft 520 kts 260°
2026-04-24 03:44 54.41045 -60.83160 40055 ft 520 kts 260°
2026-04-24 03:45 54.39691 -60.95256 40058 ft 520 kts 260°
2026-04-24 03:45 54.38314 -61.07432 40049 ft 520 kts 259°
2026-04-24 03:46 54.36924 -61.19615 40060 ft 521 kts 259°
2026-04-24 03:46 54.35518 -61.31818 40059 ft 522 kts 259°
2026-04-24 03:47 54.34109 -61.43929 40048 ft 522 kts 259°
2026-04-24 03:47 54.32678 -61.56120 40050 ft 522 kts 259°
2026-04-24 03:48 54.31235 -61.68296 40042 ft 522 kts 259°
2026-04-24 03:48 54.29781 -61.80463 40065 ft 522 kts 259°
2026-04-24 03:49 54.28319 -61.92580 40044 ft 524 kts 259°
2026-04-24 03:49 54.26830 -62.04806 40048 ft 525 kts 259°
2026-04-24 03:50 54.25327 -62.17037 40040 ft 525 kts 259°
2026-04-24 03:50 54.23813 -62.29254 40034 ft 525 kts 259°
2026-04-24 03:51 54.22295 -62.41393 40033 ft 525 kts 258°
2026-04-24 03:51 54.20756 -62.53596 40028 ft 526 kts 258°
2026-04-24 03:52 54.19201 -62.65812 40018 ft 526 kts 258°
2026-04-24 03:52 54.17635 -62.78014 40012 ft 526 kts 258°
2026-04-24 03:53 54.16067 -62.90123 40004 ft 526 kts 258°
2026-04-24 03:53 54.14476 -63.02313 40023 ft 526 kts 258°
2026-04-24 03:54 54.12871 -63.14493 39998 ft 526 kts 258°
2026-04-24 03:54 54.11258 -63.26645 40004 ft 524 kts 258°
2026-04-24 03:55 54.09647 -63.38670 40014 ft 524 kts 258°
2026-04-24 03:55 54.08016 -63.50751 39998 ft 523 kts 258°
2026-04-24 03:56 54.06374 -63.62817 40010 ft 523 kts 257°
2026-04-24 03:56 54.04719 -63.74873 40009 ft 523 kts 257°
2026-04-24 03:57 54.03053 -63.86920 40001 ft 523 kts 257°
2026-04-24 03:57 54.01387 -63.98863 40010 ft 522 kts 257°
2026-04-24 03:58 53.99701 -64.10855 40013 ft 522 kts 257°
2026-04-24 03:58 53.98000 -64.22863 40007 ft 523 kts 257°
2026-04-24 03:59 53.96288 -64.34862 40007 ft 523 kts 257°
2026-04-24 03:59 53.94575 -64.46766 40004 ft 523 kts 257°
2026-04-24 04:00 53.92839 -64.58737 40002 ft 522 kts 257°
2026-04-24 04:00 53.91091 -64.70698 40005 ft 522 kts 257°
2026-04-24 04:01 53.89346 -64.82551 40020 ft 522 kts 257°
2026-04-24 04:01 53.87575 -64.94494 40015 ft 523 kts 257°
2026-04-24 04:02 53.85790 -65.06437 40009 ft 523 kts 257°
2026-04-24 04:02 53.83993 -65.18373 40009 ft 523 kts 257°
2026-04-24 04:03 53.82185 -65.30291 40017 ft 523 kts 257°
2026-04-24 04:03 53.80376 -65.42128 40017 ft 523 kts 256°
2026-04-24 04:04 53.78542 -65.54044 40028 ft 523 kts 256°
2026-04-24 04:04 53.76695 -65.65955 40026 ft 524 kts 256°
2026-04-24 04:05 53.74834 -65.77868 40037 ft 525 kts 256°
2026-04-24 04:05 53.72972 -65.89700 40030 ft 525 kts 256°
2026-04-24 04:06 53.71087 -66.01598 40047 ft 525 kts 256°
2026-04-24 04:06 53.69190 -66.13483 40044 ft 525 kts 256°
2026-04-24 04:07 53.67294 -66.25279 40040 ft 525 kts 256°
2026-04-24 04:07 53.65375 -66.37141 40056 ft 525 kts 256°
2026-04-24 04:08 53.63443 -66.48994 40053 ft 525 kts 255°
2026-04-24 04:08 53.61498 -66.60841 40062 ft 524 kts 255°
2026-04-24 04:09 53.59559 -66.72575 40061 ft 523 kts 255°
2026-04-24 04:09 53.57597 -66.84370 40075 ft 523 kts 255°
2026-04-24 04:10 53.55623 -66.96151 40073 ft 523 kts 255°
2026-04-24 04:10 53.53637 -67.07931 40074 ft 524 kts 255°
2026-04-24 04:11 53.50647 -67.25506 40069 ft 524 kts 255°
2026-04-24 04:11 53.48632 -67.37256 40074 ft 523 kts 255°
2026-04-24 04:12 53.46608 -67.48979 40075 ft 523 kts 255°
2026-04-24 04:12 53.44573 -67.60689 40075 ft 523 kts 255°
2026-04-24 04:13 53.42539 -67.72316 40075 ft 523 kts 255°
2026-04-24 04:13 53.40479 -67.84012 40075 ft 524 kts 255°
2026-04-24 04:14 53.38406 -67.95707 40077 ft 523 kts 255°
2026-04-24 04:14 53.36324 -68.07376 40078 ft 523 kts 255°
2026-04-24 04:15 53.34247 -68.18952 40083 ft 523 kts 254°
2026-04-24 04:15 53.32142 -68.30600 40083 ft 523 kts 254°
2026-04-24 04:16 53.30028 -68.42230 40091 ft 523 kts 254°
2026-04-24 04:16 53.27898 -68.53869 40087 ft 524 kts 254°
2026-04-24 04:17 53.25773 -68.65413 40097 ft 524 kts 254°
2026-04-24 04:17 53.23620 -68.77034 40088 ft 524 kts 254°
2026-04-24 04:18 53.21454 -68.88646 40092 ft 524 kts 254°
2026-04-24 04:18 53.19277 -69.00253 40091 ft 524 kts 253°
2026-04-24 04:19 53.17103 -69.11769 40089 ft 524 kts 253°
2026-04-24 04:19 53.14907 -69.23332 40097 ft 523 kts 253°
2026-04-24 04:20 53.12704 -69.34859 40092 ft 522 kts 253°
2026-04-24 04:20 53.10491 -69.46375 40099 ft 522 kts 253°
2026-04-24 04:21 53.08281 -69.57798 40097 ft 522 kts 253°
2026-04-24 04:21 53.06045 -69.69291 40108 ft 522 kts 253°
2026-04-24 04:22 53.03798 -69.80771 40096 ft 522 kts 253°
2026-04-24 04:22 53.01541 -69.92235 40114 ft 522 kts 253°
2026-04-24 04:23 52.99309 -70.03623 40112 ft 522 kts 255°
2026-04-24 04:23 52.97499 -70.15272 40108 ft 521 kts 258°
2026-04-24 04:24 52.95848 -70.26976 40119 ft 521 kts 258°
2026-04-24 04:24 52.94127 -70.38658 40118 ft 521 kts 257°
2026-04-24 04:25 52.92355 -70.50219 40129 ft 521 kts 257°
2026-04-24 04:25 52.90545 -70.61831 40125 ft 520 kts 257°
2026-04-24 04:26 52.88724 -70.73439 40135 ft 521 kts 257°
2026-04-24 04:26 52.86892 -70.85049 40135 ft 521 kts 257°
2026-04-24 04:27 52.85064 -70.96567 40140 ft 521 kts 257°
2026-04-24 04:27 52.83211 -71.08156 40139 ft 521 kts 257°
2026-04-24 04:28 52.81350 -71.19715 40140 ft 520 kts 257°
2026-04-24 04:28 52.79480 -71.31251 40147 ft 520 kts 256°
2026-04-24 04:29 52.77610 -71.42707 40146 ft 520 kts 257°
2026-04-24 04:29 52.75718 -71.54224 40143 ft 520 kts 256°
2026-04-24 04:30 52.73814 -71.65736 40151 ft 520 kts 256°
2026-04-24 04:30 52.71902 -71.77213 40154 ft 519 kts 256°
2026-04-24 04:31 52.69991 -71.88613 40156 ft 519 kts 256°
2026-04-24 04:31 52.68058 -72.00071 40157 ft 519 kts 256°
2026-04-24 04:32 52.66115 -72.11511 40161 ft 519 kts 256°
2026-04-24 04:32 52.64172 -72.22873 40151 ft 519 kts 256°
2026-04-24 04:33 52.62206 -72.34300 40165 ft 519 kts 256°
2026-04-24 04:33 52.60226 -72.45730 40160 ft 519 kts 256°
2026-04-24 04:34 52.58237 -72.57138 40167 ft 519 kts 256°
2026-04-24 04:34 52.56250 -72.68467 40162 ft 519 kts 256°
2026-04-24 04:35 52.54238 -72.79860 40149 ft 519 kts 255°
2026-04-24 04:35 52.52218 -72.91232 40165 ft 519 kts 255°
2026-04-24 04:36 52.50186 -73.02591 40177 ft 518 kts 255°
2026-04-24 04:36 52.48158 -73.13864 40168 ft 519 kts 255°
2026-04-24 04:37 52.46106 -73.25200 40169 ft 519 kts 255°
2026-04-24 04:37 52.44042 -73.36533 40169 ft 518 kts 255°
2026-04-24 04:38 52.41972 -73.47830 40169 ft 516 kts 255°
2026-04-24 04:38 52.39911 -73.58999 40184 ft 515 kts 254°
2026-04-24 04:39 52.37830 -73.70218 40185 ft 515 kts 254°
2026-04-24 04:39 52.35737 -73.81427 40185 ft 515 kts 254°
2026-04-24 04:40 52.33635 -73.92627 40185 ft 515 kts 254°
2026-04-24 04:40 52.31525 -74.03795 40185 ft 512 kts 254°
2026-04-24 04:41 52.29434 -74.14793 40190 ft 509 kts 254°
2026-04-24 04:41 52.27326 -74.25828 40189 ft 509 kts 254°
2026-04-24 04:42 52.25207 -74.36847 40190 ft 509 kts 253°
2026-04-24 04:42 52.23093 -74.47783 40197 ft 509 kts 253°
2026-04-24 04:43 52.20956 -74.58769 40194 ft 508 kts 254°
2026-04-24 04:43 52.18813 -74.69727 40200 ft 507 kts 254°
2026-04-24 04:44 52.16661 -74.80666 40197 ft 507 kts 253°
2026-04-24 04:44 52.14516 -74.91514 40198 ft 507 kts 253°
2026-04-24 04:45 52.12344 -75.02431 40198 ft 507 kts 253°
2026-04-24 04:45 52.10162 -75.13340 40189 ft 506 kts 253°
2026-04-24 04:46 52.07982 -75.24171 40199 ft 503 kts 253°
2026-04-24 04:46 52.05817 -75.34878 40202 ft 502 kts 253°
2026-04-24 04:47 52.03626 -75.45655 40204 ft 502 kts 253°
2026-04-24 04:47 52.01423 -75.56430 40205 ft 502 kts 253°
2026-04-24 04:48 51.99226 -75.67113 40206 ft 502 kts 253°
2026-04-24 04:48 51.97004 -75.77864 40205 ft 503 kts 253°
2026-04-24 04:49 51.94770 -75.88616 40212 ft 503 kts 253°
2026-04-24 04:49 51.92525 -75.99358 40215 ft 503 kts 253°
2026-04-24 04:50 51.90285 -76.10022 40222 ft 504 kts 253°
2026-04-24 04:50 51.88020 -76.20746 40218 ft 504 kts 253°
2026-04-24 04:51 51.85746 -76.31460 40225 ft 502 kts 253°
2026-04-24 04:51 51.83474 -76.42103 40225 ft 500 kts 253°
2026-04-24 04:52 51.81196 -76.52719 40230 ft 500 kts 253°
2026-04-24 04:52 51.78925 -76.63252 40230 ft 500 kts 253°
2026-04-24 04:53 51.76629 -76.73846 40236 ft 500 kts 253°
2026-04-24 04:53 51.74322 -76.84428 40230 ft 499 kts 253°
2026-04-24 04:54 51.72028 -76.94902 40239 ft 499 kts 253°
2026-04-24 04:54 51.69710 -77.05439 40239 ft 498 kts 253°
2026-04-24 04:55 51.67382 -77.15963 40243 ft 498 kts 253°
2026-04-24 04:55 51.65044 -77.26475 40242 ft 498 kts 253°
2026-04-24 04:56 51.62714 -77.36900 40235 ft 498 kts 253°
2026-04-24 04:56 51.60361 -77.47369 40252 ft 497 kts 254°
2026-04-24 04:57 51.58009 -77.57787 40258 ft 495 kts 254°
2026-04-24 04:57 51.55652 -77.68186 40259 ft 495 kts 254°
2026-04-24 04:58 51.53287 -77.78564 40257 ft 495 kts 253°
2026-04-24 04:58 51.50927 -77.88868 40260 ft 495 kts 253°
2026-04-24 04:59 51.48547 -77.99200 40259 ft 491 kts 254°
2026-04-24 04:59 51.46176 -78.09449 40263 ft 490 kts 254°
2026-04-24 05:00 51.43814 -78.19613 40263 ft 489 kts 254°
2026-04-24 05:00 51.41433 -78.29809 40268 ft 488 kts 254°
2026-04-24 05:01 51.39047 -78.39984 40265 ft 488 kts 254°
2026-04-24 05:01 51.36652 -78.50145 40261 ft 489 kts 254°
2026-04-24 05:02 51.34259 -78.60253 40264 ft 489 kts 254°
2026-04-24 05:02 51.31839 -78.70421 40273 ft 489 kts 254°
2026-04-24 05:03 51.29411 -78.80579 40273 ft 489 kts 254°
2026-04-24 05:03 51.26973 -78.90727 40274 ft 490 kts 254°
2026-04-24 05:04 51.24536 -79.00825 40256 ft 491 kts 254°
2026-04-24 05:04 51.22071 -79.10997 40273 ft 492 kts 254°
2026-04-24 05:05 51.19591 -79.21176 40276 ft 492 kts 254°
2026-04-24 05:05 51.17103 -79.31344 40277 ft 493 kts 254°
2026-04-24 05:06 51.14622 -79.41435 40276 ft 493 kts 253°
2026-04-24 05:06 51.12115 -79.51585 40276 ft 493 kts 253°
2026-04-24 05:07 51.09609 -79.61676 40273 ft 487 kts 254°
2026-04-24 05:07 51.07124 -79.71635 40281 ft 483 kts 254°
2026-04-24 05:08 51.04662 -79.81481 40282 ft 483 kts 254°
2026-04-24 05:08 51.02173 -79.91391 40269 ft 483 kts 254°
2026-04-24 05:09 50.99676 -80.01289 40265 ft 483 kts 254°
2026-04-24 05:09 50.97552 -80.11328 40265 ft 478 kts 259°
2026-04-24 05:10 50.95682 -80.21447 40270 ft 478 kts 259°
2026-04-24 05:10 50.93775 -80.31484 40262 ft 479 kts 259°
2026-04-24 05:11 50.91789 -80.41538 40268 ft 476 kts 258°
2026-04-24 05:11 50.89784 -80.51514 40268 ft 475 kts 258°
2026-04-24 05:12 50.87786 -80.61399 40255 ft 472 kts 258°
2026-04-24 05:12 50.85791 -80.71232 40258 ft 468 kts 258°
2026-04-24 05:13 50.82798 -80.85925 40265 ft 468 kts 258°
2026-04-24 05:14 50.80792 -80.95715 40260 ft 468 kts 258°
2026-04-24 05:14 50.78789 -81.05435 40262 ft 468 kts 258°
2026-04-24 05:15 50.76767 -81.15194 40255 ft 467 kts 258°
2026-04-24 05:15 50.74740 -81.24929 40257 ft 467 kts 258°
2026-04-24 05:16 50.72706 -81.34658 40252 ft 467 kts 258°
2026-04-24 05:16 50.70676 -81.44315 40246 ft 467 kts 257°
2026-04-24 05:17 50.68625 -81.54032 40248 ft 467 kts 257°
2026-04-24 05:17 50.66567 -81.63732 40248 ft 467 kts 257°
2026-04-24 05:18 50.64500 -81.73425 40243 ft 467 kts 257°
2026-04-24 05:18 50.62438 -81.83048 40226 ft 467 kts 257°
2026-04-24 05:19 50.60353 -81.92737 40233 ft 467 kts 257°
2026-04-24 05:19 50.58261 -82.02407 40219 ft 466 kts 257°
2026-04-24 05:20 50.56180 -82.11986 40215 ft 466 kts 256°
2026-04-24 05:20 50.54082 -82.21591 40216 ft 464 kts 256°
2026-04-24 05:21 50.51982 -82.31170 40212 ft 464 kts 256°
2026-04-24 05:21 50.49871 -82.40751 40202 ft 464 kts 256°
2026-04-24 05:22 50.47769 -82.50249 40202 ft 464 kts 256°
2026-04-24 05:22 50.45643 -82.59812 40180 ft 464 kts 256°
2026-04-24 05:23 50.43514 -82.69345 40194 ft 463 kts 256°
2026-04-24 05:23 50.41376 -82.78869 40186 ft 463 kts 255°
2026-04-24 05:24 50.39247 -82.88314 40187 ft 463 kts 255°
2026-04-24 05:24 50.37097 -82.97813 40176 ft 463 kts 255°
2026-04-24 05:25 50.34937 -83.07310 40155 ft 463 kts 255°
2026-04-24 05:25 50.32773 -83.16782 40177 ft 462 kts 255°
2026-04-24 05:26 50.30616 -83.26179 40162 ft 462 kts 255°
2026-04-24 05:26 50.28437 -83.35631 40162 ft 462 kts 255°
2026-04-24 05:27 50.26250 -83.45078 40152 ft 462 kts 255°
2026-04-24 05:27 50.24055 -83.54517 40137 ft 462 kts 255°
2026-04-24 05:28 50.21867 -83.63889 40136 ft 463 kts 254°
2026-04-24 05:28 50.19653 -83.73326 40137 ft 463 kts 254°
2026-04-24 05:29 50.17430 -83.82759 40124 ft 463 kts 254°
2026-04-24 05:29 50.15198 -83.92191 40119 ft 463 kts 254°
2026-04-24 05:30 50.12959 -84.01609 40106 ft 463 kts 253°
2026-04-24 05:30 50.10728 -84.10960 40104 ft 463 kts 253°
2026-04-24 05:31 50.08476 -84.20354 40091 ft 463 kts 253°
2026-04-24 05:31 50.06214 -84.29747 40093 ft 463 kts 253°
2026-04-24 05:32 50.03944 -84.39133 40085 ft 464 kts 253°
2026-04-24 05:32 50.01682 -84.48449 40082 ft 464 kts 253°
2026-04-24 05:33 49.99397 -84.57819 40072 ft 463 kts 252°
2026-04-24 05:33 49.97113 -84.67144 40076 ft 461 kts 252°
2026-04-24 05:34 49.93692 -84.81041 40067 ft 461 kts 252°
2026-04-24 05:34 49.91391 -84.90339 40065 ft 461 kts 252°
2026-04-24 05:35 49.89083 -84.99626 40056 ft 461 kts 251°
2026-04-24 05:35 49.86767 -85.08905 40050 ft 461 kts 251°
2026-04-24 05:36 49.84461 -85.18107 40039 ft 461 kts 251°
2026-04-24 05:36 49.82132 -85.27363 40037 ft 461 kts 251°
2026-04-24 05:37 49.79794 -85.36616 40042 ft 461 kts 251°
2026-04-24 05:37 49.77451 -85.45850 40044 ft 461 kts 251°
2026-04-24 05:38 49.75105 -85.55062 40029 ft 459 kts 251°
2026-04-24 05:38 49.72779 -85.64152 40030 ft 457 kts 251°
2026-04-24 05:39 49.70434 -85.73284 40014 ft 457 kts 250°
2026-04-24 05:39 49.68081 -85.82411 40002 ft 457 kts 250°
2026-04-24 05:40 49.65724 -85.91515 40004 ft 457 kts 250°
2026-04-24 05:40 49.63382 -86.00532 40002 ft 454 kts 250°
2026-04-24 05:41 49.61029 -86.09547 39992 ft 452 kts 250°
2026-04-24 05:41 49.58675 -86.18529 39989 ft 452 kts 250°
2026-04-24 05:42 49.56314 -86.27507 39985 ft 452 kts 250°
2026-04-24 05:42 49.53964 -86.36410 39977 ft 452 kts 250°
2026-04-24 05:43 49.51592 -86.45364 39956 ft 451 kts 249°
2026-04-24 05:43 49.49225 -86.54258 39957 ft 448 kts 249°
2026-04-24 05:44 49.46860 -86.63109 39945 ft 447 kts 249°
2026-04-24 05:44 49.44509 -86.71886 39947 ft 447 kts 249°
2026-04-24 05:45 49.42132 -86.80716 39932 ft 447 kts 249°
2026-04-24 05:45 49.39747 -86.89542 39940 ft 447 kts 249°
2026-04-24 05:46 49.37367 -86.98320 39927 ft 444 kts 248°
2026-04-24 05:46 49.35004 -87.06997 39926 ft 444 kts 248°
2026-04-24 05:47 49.32619 -87.15726 39900 ft 444 kts 248°
2026-04-24 05:47 49.30231 -87.24436 39905 ft 444 kts 248°
2026-04-24 05:48 49.27834 -87.33145 39907 ft 443 kts 248°
2026-04-24 05:48 49.25434 -87.41837 39889 ft 443 kts 247°
2026-04-24 05:49 49.23049 -87.50435 39879 ft 442 kts 247°
2026-04-24 05:49 49.20641 -87.59087 39857 ft 442 kts 247°
2026-04-24 05:50 49.18226 -87.67733 39861 ft 442 kts 247°
2026-04-24 05:50 49.15808 -87.76360 39836 ft 442 kts 247°
2026-04-24 05:51 49.13396 -87.84936 39830 ft 443 kts 246°
2026-04-24 05:51 49.10957 -87.93572 39793 ft 443 kts 246°
2026-04-24 05:52 49.08511 -88.02205 39793 ft 443 kts 246°
2026-04-24 05:52 49.06056 -88.10836 39792 ft 443 kts 246°
2026-04-24 05:53 49.03616 -88.19387 39786 ft 443 kts 246°
2026-04-24 05:53 49.01156 -88.27979 39791 ft 443 kts 245°
2026-04-24 05:54 48.98688 -88.36564 39778 ft 442 kts 245°
2026-04-24 05:54 48.96214 -88.45135 39777 ft 443 kts 245°
2026-04-24 05:55 48.93749 -88.53650 39795 ft 442 kts 245°
2026-04-24 05:55 48.91265 -88.62198 39773 ft 442 kts 245°
2026-04-24 05:56 48.88773 -88.70747 39788 ft 442 kts 244°
2026-04-24 05:56 48.86269 -88.79304 39780 ft 444 kts 244°
2026-04-24 05:57 48.83770 -88.87813 39785 ft 444 kts 244°
2026-04-24 05:57 48.81246 -88.96378 39774 ft 444 kts 244°
2026-04-24 05:58 48.78717 -89.04930 39777 ft 444 kts 244°
2026-04-24 05:58 48.76180 -89.13478 39778 ft 444 kts 243°
2026-04-24 05:59 48.73663 -89.21946 39767 ft 443 kts 242°
2026-04-24 05:59 48.71123 -89.30440 39754 ft 443 kts 242°
2026-04-24 06:00 48.68579 -89.38920 39759 ft 442 kts 242°
2026-04-24 06:00 48.66030 -89.47388 39755 ft 442 kts 242°
2026-04-24 06:01 48.63491 -89.55796 39745 ft 442 kts 242°
2026-04-24 06:01 48.60931 -89.64244 39749 ft 442 kts 242°
2026-04-24 06:02 48.58363 -89.72692 39738 ft 442 kts 242°
2026-04-24 06:02 48.55792 -89.81121 39739 ft 442 kts 242°
2026-04-24 06:03 48.53213 -89.89548 39739 ft 442 kts 242°
2026-04-24 06:03 48.50648 -89.97901 39737 ft 442 kts 242°
2026-04-24 06:04 48.47982 -90.06215 39723 ft 438 kts 239°
2026-04-24 06:04 48.45115 -90.14288 39720 ft 436 kts 238°
2026-04-24 06:05 48.42233 -90.22335 39703 ft 436 kts 238°
2026-04-24 06:05 48.39397 -90.30345 39694 ft 437 kts 238°
2026-04-24 06:06 48.36556 -90.38414 39676 ft 436 kts 239°
2026-04-24 06:06 48.33714 -90.46475 39686 ft 436 kts 238°
2026-04-24 06:07 48.30864 -90.54530 39669 ft 437 kts 238°
2026-04-24 06:07 48.28023 -90.62529 39661 ft 437 kts 238°
2026-04-24 06:08 48.25161 -90.70562 39661 ft 437 kts 238°
2026-04-24 06:08 48.22292 -90.78591 39661 ft 437 kts 238°
2026-04-24 06:09 48.19419 -90.86604 39672 ft 437 kts 238°
2026-04-24 06:09 48.16568 -90.94535 39645 ft 434 kts 238°
2026-04-24 06:10 48.13701 -91.02487 39639 ft 433 kts 238°
2026-04-24 06:11 48.09398 -91.14372 39632 ft 433 kts 237°
2026-04-24 06:11 48.06520 -91.22291 39627 ft 433 kts 237°
2026-04-24 06:12 48.03658 -91.30143 39631 ft 433 kts 237°
2026-04-24 06:12 48.00786 -91.38002 39618 ft 430 kts 237°
2026-04-24 06:13 47.97917 -91.45826 39626 ft 430 kts 237°
2026-04-24 06:13 47.95041 -91.53645 39629 ft 430 kts 237°
2026-04-24 06:14 47.92175 -91.61414 39636 ft 430 kts 237°
2026-04-24 06:14 47.89288 -91.69220 39663 ft 430 kts 237°
2026-04-24 06:15 47.86398 -91.77012 39650 ft 429 kts 236°
2026-04-24 06:15 47.83513 -91.84765 39645 ft 428 kts 236°
2026-04-24 06:16 47.80642 -91.92458 39619 ft 428 kts 236°
2026-04-24 06:16 47.77749 -92.00187 39616 ft 428 kts 236°
2026-04-24 06:17 47.74850 -92.07909 39628 ft 428 kts 236°
2026-04-24 06:17 47.71948 -92.15621 39622 ft 426 kts 235°
2026-04-24 06:18 47.69074 -92.23237 39638 ft 425 kts 235°
2026-04-24 06:18 47.66184 -92.30870 39648 ft 425 kts 235°
2026-04-24 06:19 47.63286 -92.38501 39668 ft 424 kts 235°
2026-04-24 06:19 47.60384 -92.46121 39688 ft 424 kts 235°
2026-04-24 06:20 47.57498 -92.53678 39699 ft 424 kts 235°
2026-04-24 06:20 47.54600 -92.61252 39686 ft 422 kts 235°
2026-04-24 06:21 47.51703 -92.68795 39689 ft 422 kts 235°
2026-04-24 06:21 47.48801 -92.76329 39688 ft 422 kts 235°
2026-04-24 06:22 47.45891 -92.83862 39674 ft 422 kts 235°
2026-04-24 06:22 47.43000 -92.91328 39692 ft 422 kts 234°
2026-04-24 06:23 47.40093 -92.98819 39681 ft 419 kts 234°
2026-04-24 06:23 47.37196 -93.06261 39681 ft 418 kts 234°
2026-04-24 06:24 47.34293 -93.13692 39680 ft 418 kts 234°
2026-04-24 06:24 47.31407 -93.21061 39719 ft 418 kts 234°
2026-04-24 06:25 47.28497 -93.28471 39718 ft 418 kts 234°
2026-04-24 06:25 47.25585 -93.35869 39728 ft 417 kts 234°
2026-04-24 06:26 47.22670 -93.43255 39720 ft 417 kts 234°
2026-04-24 06:26 47.19772 -93.50575 39723 ft 417 kts 233°
2026-04-24 06:27 47.16850 -93.57936 39719 ft 417 kts 233°
2026-04-24 06:27 47.13924 -93.65288 39720 ft 417 kts 233°
2026-04-24 06:28 47.10994 -93.72629 39725 ft 417 kts 233°
2026-04-24 06:28 47.08060 -93.79962 39744 ft 417 kts 233°
2026-04-24 06:29 47.05137 -93.87246 39747 ft 417 kts 233°
2026-04-24 06:29 47.02193 -93.94565 39742 ft 417 kts 233°
2026-04-24 06:30 46.99240 -94.01870 39732 ft 416 kts 233°
2026-04-24 06:30 46.96104 -94.08959 39766 ft 414 kts 231°
2026-04-24 06:31 46.92869 -94.15961 39739 ft 416 kts 231°
2026-04-24 06:31 46.89666 -94.22950 39741 ft 417 kts 231°
2026-04-24 06:32 46.86457 -94.30015 39735 ft 417 kts 231°
2026-04-24 06:32 46.83256 -94.37071 39753 ft 417 kts 231°
2026-04-24 06:33 46.80053 -94.44114 39738 ft 417 kts 231°
2026-04-24 06:33 46.76843 -94.51152 39747 ft 417 kts 231°
2026-04-24 06:34 46.73622 -94.58185 39742 ft 421 kts 231°
2026-04-24 06:34 46.70362 -94.65291 39747 ft 422 kts 231°
2026-04-24 06:35 46.67101 -94.72386 39760 ft 422 kts 231°
2026-04-24 06:35 46.63834 -94.79474 39761 ft 421 kts 231°
2026-04-24 06:36 46.60586 -94.86501 39794 ft 422 kts 231°
2026-04-24 06:36 46.57290 -94.93613 39769 ft 426 kts 231°
2026-04-24 06:37 46.53970 -95.00758 39774 ft 427 kts 231°
2026-04-24 06:37 46.50639 -95.07913 39776 ft 427 kts 231°
2026-04-24 06:38 46.47329 -95.15004 39776 ft 427 kts 231°
2026-04-24 06:38 46.43993 -95.22131 39772 ft 427 kts 230°
2026-04-24 06:39 46.40645 -95.29261 39778 ft 431 kts 231°
2026-04-24 06:39 46.37256 -95.36454 39791 ft 437 kts 231°
2026-04-24 06:40 46.33831 -95.43719 39791 ft 437 kts 231°
2026-04-24 06:40 46.30404 -95.50972 39799 ft 436 kts 231°
2026-04-24 06:41 46.26970 -95.58215 39798 ft 436 kts 231°
2026-04-24 06:41 46.23548 -95.65413 39809 ft 440 kts 231°
2026-04-24 06:42 46.20055 -95.72735 39805 ft 444 kts 231°
2026-04-24 06:42 46.16545 -95.80081 39811 ft 445 kts 231°
2026-04-24 06:43 46.13032 -95.87416 39812 ft 444 kts 231°
2026-04-24 06:43 46.09515 -95.94740 39815 ft 444 kts 231°
2026-04-24 06:44 46.06011 -96.02011 39815 ft 446 kts 231°
2026-04-24 06:44 46.02462 -96.09359 39814 ft 447 kts 231°
2026-04-24 06:45 45.98907 -96.16703 39809 ft 447 kts 231°
2026-04-24 06:45 45.95948 -96.22803 39823 ft 447 kts 231°
2026-04-24 06:46 45.91810 -96.31308 39829 ft 447 kts 231°
2026-04-24 06:46 45.88240 -96.38622 39828 ft 448 kts 231°
2026-04-24 06:47 45.84653 -96.45953 39848 ft 449 kts 231°
2026-04-24 06:47 45.81062 -96.53276 39849 ft 449 kts 231°
2026-04-24 06:48 45.77492 -96.60536 39813 ft 449 kts 231°
2026-04-24 06:48 45.73893 -96.67836 39828 ft 449 kts 231°
2026-04-24 06:49 45.70284 -96.75135 39819 ft 450 kts 231°
2026-04-24 06:49 45.67275 -96.81207 39821 ft 451 kts 231°
2026-04-24 06:50 45.63058 -96.89698 39823 ft 451 kts 231°
2026-04-24 06:50 45.59426 -96.96992 39821 ft 451 kts 231°
2026-04-24 06:51 45.56401 -97.03051 39848 ft 451 kts 231°
2026-04-24 06:51 45.52755 -97.10333 39830 ft 452 kts 231°
2026-04-24 06:52 45.48492 -97.18827 39833 ft 453 kts 231°
2026-04-24 06:52 45.44821 -97.26123 39830 ft 453 kts 231°
2026-04-24 06:53 45.41146 -97.33407 39839 ft 453 kts 231°
2026-04-24 06:53 45.38084 -97.39462 39843 ft 453 kts 231°
2026-04-24 06:54 45.33801 -97.47910 39843 ft 453 kts 231°
2026-04-24 06:54 45.30110 -97.55168 39843 ft 453 kts 231°
2026-04-24 06:55 45.27042 -97.61189 39847 ft 453 kts 231°
2026-04-24 06:55 45.23343 -97.68430 39843 ft 453 kts 231°
2026-04-24 06:56 45.19038 -97.76836 39854 ft 454 kts 231°
2026-04-24 06:56 45.15925 -97.82897 39854 ft 454 kts 231°
2026-04-24 06:57 45.12228 -97.90081 39854 ft 454 kts 231°
2026-04-24 06:57 45.08502 -97.97300 39853 ft 454 kts 231°
2026-04-24 06:58 45.04777 -98.04503 39865 ft 454 kts 231°
2026-04-24 06:58 45.01045 -98.11698 39866 ft 453 kts 232°
2026-04-24 06:59 44.97312 -98.18879 39873 ft 453 kts 232°
2026-04-24 06:59 44.93603 -98.25994 39874 ft 453 kts 232°
2026-04-24 07:00 44.89862 -98.33154 39882 ft 453 kts 232°
2026-04-24 07:00 44.86117 -98.40302 39909 ft 453 kts 232°
2026-04-24 07:01 44.82386 -98.47409 39891 ft 451 kts 232°
2026-04-24 07:01 44.78681 -98.54448 39893 ft 450 kts 232°
2026-04-24 07:02 44.74949 -98.61520 39892 ft 450 kts 232°
2026-04-24 07:02 44.71209 -98.68590 39897 ft 450 kts 231°
2026-04-24 07:03 44.67466 -98.75647 39903 ft 450 kts 231°
2026-04-24 07:03 44.63745 -98.82646 39898 ft 450 kts 232°
2026-04-24 07:04 44.60000 -98.89675 39910 ft 450 kts 231°
2026-04-24 07:04 44.56248 -98.96698 39913 ft 450 kts 231°
2026-04-24 07:05 44.52497 -99.03703 39905 ft 449 kts 231°
2026-04-24 07:05 44.48762 -99.10661 39932 ft 450 kts 231°
2026-04-24 07:06 44.44998 -99.17655 39917 ft 450 kts 231°
2026-04-24 07:06 44.41222 -99.24655 39922 ft 451 kts 231°
2026-04-24 07:07 44.37442 -99.31647 39924 ft 450 kts 231°
2026-04-24 07:07 44.31791 -99.42066 39921 ft 450 kts 231°
2026-04-24 07:08 44.28004 -99.49028 39915 ft 451 kts 231°
2026-04-24 07:08 44.24206 -99.55993 39917 ft 452 kts 231°
2026-04-24 07:09 44.20396 -99.62963 39916 ft 452 kts 231°
2026-04-24 07:09 44.16610 -99.69874 39919 ft 452 kts 231°
2026-04-24 07:10 44.12794 -99.76822 39916 ft 452 kts 231°
2026-04-24 07:10 44.08975 -99.83758 39933 ft 452 kts 232°
2026-04-24 07:11 44.05147 -99.90694 39918 ft 452 kts 232°
2026-04-24 07:11 44.01310 -99.97632 39920 ft 452 kts 231°
2026-04-24 07:12 43.97532 -100.04536 39922 ft 453 kts 233°
2026-04-24 07:12 43.93825 -100.11601 39920 ft 452 kts 233°
2026-04-24 07:13 43.90127 -100.18667 39906 ft 452 kts 233°
2026-04-24 07:13 43.86438 -100.25652 39912 ft 452 kts 233°
2026-04-24 07:14 43.82711 -100.32667 39913 ft 452 kts 233°
2026-04-24 07:14 43.78980 -100.39665 39914 ft 452 kts 233°
2026-04-24 07:15 43.75243 -100.46658 39912 ft 452 kts 233°
2026-04-24 07:15 43.71530 -100.53592 39913 ft 452 kts 233°
2026-04-24 07:16 43.67789 -100.60564 39914 ft 451 kts 233°
2026-04-24 07:16 43.64052 -100.67511 39913 ft 450 kts 233°
2026-04-24 07:17 43.60312 -100.74447 39912 ft 450 kts 233°
2026-04-24 07:17 43.56593 -100.81327 39914 ft 450 kts 233°
2026-04-24 07:18 43.52847 -100.88240 39918 ft 450 kts 233°
2026-04-24 07:18 43.49096 -100.95147 39924 ft 450 kts 233°
2026-04-24 07:19 43.45348 -101.02032 39923 ft 449 kts 233°
2026-04-24 07:19 43.41621 -101.08864 39908 ft 449 kts 233°
2026-04-24 07:20 43.37866 -101.15729 39919 ft 449 kts 233°
2026-04-24 07:20 43.34107 -101.22588 39926 ft 449 kts 233°
2026-04-24 07:21 43.30346 -101.29433 39920 ft 449 kts 233°
2026-04-24 07:21 43.26583 -101.36266 39914 ft 448 kts 233°
2026-04-24 07:22 43.22857 -101.43016 39923 ft 446 kts 233°
2026-04-24 07:22 43.19108 -101.49791 39904 ft 446 kts 233°
2026-04-24 07:23 43.15354 -101.56561 39902 ft 446 kts 233°
2026-04-24 07:23 43.11596 -101.63323 39907 ft 446 kts 233°
2026-04-24 07:24 43.07864 -101.70022 39913 ft 446 kts 232°
2026-04-24 07:24 43.04097 -101.76770 39908 ft 447 kts 232°
2026-04-24 07:25 43.00323 -101.83513 39914 ft 447 kts 233°
2026-04-24 07:25 42.96546 -101.90246 39909 ft 446 kts 233°
2026-04-24 07:26 42.92795 -101.96920 39901 ft 446 kts 233°
2026-04-24 07:26 42.89014 -102.03631 39906 ft 446 kts 232°
2026-04-24 07:27 42.85226 -102.10340 39891 ft 447 kts 232°
2026-04-24 07:27 42.81431 -102.17045 39904 ft 447 kts 232°
2026-04-24 07:28 42.77627 -102.23750 39897 ft 447 kts 232°
2026-04-24 07:28 42.73852 -102.30389 39891 ft 446 kts 232°
2026-04-24 07:29 42.70055 -102.37053 39887 ft 446 kts 232°
2026-04-24 07:29 42.66253 -102.43712 39884 ft 446 kts 232°
2026-04-24 07:30 42.62436 -102.50381 39884 ft 448 kts 232°
2026-04-24 07:30 42.58636 -102.57006 39881 ft 448 kts 232°
2026-04-24 07:31 42.54805 -102.63669 39884 ft 448 kts 232°
2026-04-24 07:31 42.50970 -102.70324 39872 ft 448 kts 232°
2026-04-24 07:32 42.47139 -102.76958 39874 ft 446 kts 232°
2026-04-24 07:32 42.43321 -102.83553 39882 ft 450 kts 233°
2026-04-24 07:33 42.39451 -102.90227 39879 ft 451 kts 232°
2026-04-24 07:33 42.35570 -102.96902 39865 ft 452 kts 232°
2026-04-24 07:34 42.31683 -103.03573 39864 ft 451 kts 232°
2026-04-24 07:34 42.27823 -103.10184 39871 ft 451 kts 232°
2026-04-24 07:35 42.23927 -103.16841 39856 ft 452 kts 233°
2026-04-24 07:35 42.20017 -103.23509 39854 ft 454 kts 233°
2026-04-24 07:36 42.16088 -103.30190 39853 ft 454 kts 233°
2026-04-24 07:36 42.12160 -103.36858 39854 ft 454 kts 233°
2026-04-24 07:37 42.08256 -103.43468 39862 ft 454 kts 233°
2026-04-24 07:37 42.04319 -103.50121 39868 ft 454 kts 233°
2026-04-24 07:38 42.00384 -103.56757 39871 ft 454 kts 233°
2026-04-24 07:38 41.96447 -103.63378 39877 ft 453 kts 233°
2026-04-24 07:39 41.92538 -103.69941 39876 ft 453 kts 233°
2026-04-24 07:39 41.88596 -103.76544 39867 ft 453 kts 233°
2026-04-24 07:40 41.84648 -103.83143 39846 ft 453 kts 233°
2026-04-24 07:40 41.80701 -103.89726 39833 ft 452 kts 234°
2026-04-24 07:41 41.76793 -103.96227 39811 ft 450 kts 234°
2026-04-24 07:41 41.72862 -104.02754 39801 ft 450 kts 234°
2026-04-24 07:42 41.68923 -104.09280 39794 ft 451 kts 233°
2026-04-24 07:42 41.64980 -104.15800 39793 ft 451 kts 233°
2026-04-24 07:43 41.61060 -104.22268 39821 ft 451 kts 234°
2026-04-24 07:43 41.57133 -104.28731 39804 ft 445 kts 234°
2026-04-24 07:44 41.53245 -104.35116 39807 ft 443 kts 234°
2026-04-24 07:44 41.49360 -104.41485 39795 ft 443 kts 234°
2026-04-24 07:45 41.45497 -104.47804 39819 ft 442 kts 234°
2026-04-24 07:45 41.41610 -104.54152 39825 ft 442 kts 234°
2026-04-24 07:46 41.37716 -104.60495 39846 ft 442 kts 234°
2026-04-24 07:46 41.33821 -104.66828 39870 ft 442 kts 234°
2026-04-24 07:47 41.29922 -104.73152 39894 ft 442 kts 234°
2026-04-24 07:47 41.26046 -104.79427 39906 ft 442 kts 234°
2026-04-24 07:48 41.22141 -104.85735 39901 ft 442 kts 234°
2026-04-24 07:48 41.18224 -104.92049 39916 ft 443 kts 234°
2026-04-24 07:49 41.14302 -104.98359 39901 ft 444 kts 234°
2026-04-24 07:49 41.10394 -105.04634 39811 ft 444 kts 234°
2026-04-24 07:50 41.06460 -105.10937 39806 ft 444 kts 234°
2026-04-24 07:50 41.02521 -105.17234 39810 ft 444 kts 234°
2026-04-24 07:51 40.98578 -105.23526 39799 ft 444 kts 234°
2026-04-24 07:51 40.94659 -105.29767 39796 ft 445 kts 234°
2026-04-24 07:52 40.90709 -105.36046 39796 ft 443 kts 234°
2026-04-24 07:52 40.86769 -105.42291 39796 ft 442 kts 234°
2026-04-24 07:53 40.82826 -105.48529 39799 ft 442 kts 234°
2026-04-24 07:53 40.78886 -105.54754 39816 ft 442 kts 234°
2026-04-24 07:54 40.74936 -105.60981 39812 ft 442 kts 234°
2026-04-24 07:54 40.71017 -105.67145 39839 ft 442 kts 234°
2026-04-24 07:55 40.67067 -105.73337 39846 ft 440 kts 234°
2026-04-24 07:55 40.63138 -105.79493 39877 ft 438 kts 234°
2026-04-24 07:56 40.59216 -105.85632 39873 ft 438 kts 234°
2026-04-24 07:56 40.55315 -105.91722 39885 ft 439 kts 233°
2026-04-24 07:57 40.51385 -105.97848 39913 ft 438 kts 234°
2026-04-24 07:57 40.47933 -106.04398 39915 ft 437 kts 240°
2026-04-24 07:58 40.44711 -106.11180 39936 ft 438 kts 241°
2026-04-24 07:58 40.41519 -106.17995 39904 ft 438 kts 241°
2026-04-24 07:59 40.38342 -106.24750 39943 ft 437 kts 241°
2026-04-24 07:59 40.35143 -106.31524 39949 ft 436 kts 241°
2026-04-24 08:00 40.31938 -106.38281 39958 ft 437 kts 241°
2026-04-24 08:00 40.28721 -106.45050 39961 ft 438 kts 241°
2026-04-24 08:01 40.25520 -106.51768 39965 ft 438 kts 241°
2026-04-24 08:01 40.22295 -106.58527 39967 ft 438 kts 241°
2026-04-24 08:02 40.19064 -106.65281 39977 ft 438 kts 241°
2026-04-24 08:02 40.15829 -106.72028 39980 ft 438 kts 241°
2026-04-24 08:03 40.12593 -106.78763 39986 ft 437 kts 241°
2026-04-24 08:03 40.09376 -106.85443 39985 ft 436 kts 241°
2026-04-24 08:04 40.06151 -106.92128 40004 ft 434 kts 241°
2026-04-24 08:04 40.02930 -106.98790 40004 ft 434 kts 241°
2026-04-24 08:05 39.99704 -107.05450 39998 ft 434 kts 241°
2026-04-24 08:05 39.96505 -107.12039 40005 ft 432 kts 241°
2026-04-24 08:06 39.93293 -107.18641 40005 ft 431 kts 241°
2026-04-24 08:06 39.90131 -107.25128 40003 ft 431 kts 241°
2026-04-24 08:07 39.86913 -107.31713 40002 ft 431 kts 241°
2026-04-24 08:07 39.83710 -107.38255 39989 ft 431 kts 241°
2026-04-24 08:08 39.80482 -107.44838 39993 ft 431 kts 241°
2026-04-24 08:09 39.75636 -107.54690 39997 ft 431 kts 241°
2026-04-24 08:09 39.72398 -107.61252 40001 ft 431 kts 241°
2026-04-24 08:10 39.69181 -107.67762 40013 ft 431 kts 241°
2026-04-24 08:10 39.65938 -107.74308 40024 ft 431 kts 241°
2026-04-24 08:11 39.62692 -107.80849 40029 ft 431 kts 241°
2026-04-24 08:11 39.59444 -107.87381 39944 ft 431 kts 241°
2026-04-24 08:12 39.56217 -107.93858 39935 ft 431 kts 241°
2026-04-24 08:12 39.52964 -108.00371 39934 ft 430 kts 241°
2026-04-24 08:13 39.49712 -108.06874 39929 ft 430 kts 241°
2026-04-24 08:13 39.46452 -108.13370 39908 ft 430 kts 240°
2026-04-24 08:14 39.43215 -108.19804 39925 ft 429 kts 241°
2026-04-24 08:14 39.39960 -108.26274 39918 ft 429 kts 241°
2026-04-24 08:15 39.36702 -108.32737 39938 ft 429 kts 241°
2026-04-24 08:15 39.33439 -108.39193 39973 ft 429 kts 241°
2026-04-24 08:16 39.30193 -108.45601 39975 ft 429 kts 241°
2026-04-24 08:16 39.26923 -108.52042 39992 ft 429 kts 241°
2026-04-24 08:17 39.23650 -108.58478 39999 ft 429 kts 241°
2026-04-24 08:17 39.20376 -108.64905 39995 ft 429 kts 241°
2026-04-24 08:18 39.17119 -108.71284 39983 ft 429 kts 241°
2026-04-24 08:18 39.13839 -108.77694 39916 ft 429 kts 241°
2026-04-24 08:19 39.10554 -108.84096 39908 ft 428 kts 241°
2026-04-24 08:19 39.07275 -108.90479 39903 ft 427 kts 241°
2026-04-24 08:20 39.03997 -108.96853 39914 ft 427 kts 241°
2026-04-24 08:20 39.00736 -109.03176 39921 ft 427 kts 241°
2026-04-24 08:21 38.97447 -109.09543 39917 ft 427 kts 241°
2026-04-24 08:21 38.94156 -109.15898 39913 ft 427 kts 241°
2026-04-24 08:22 38.90863 -109.22247 39916 ft 427 kts 240°
2026-04-24 08:22 38.87591 -109.28542 39926 ft 427 kts 240°
2026-04-24 08:23 38.84298 -109.34865 39913 ft 427 kts 240°
2026-04-24 08:23 38.81000 -109.41185 39921 ft 426 kts 240°
2026-04-24 08:24 38.77707 -109.47481 39919 ft 425 kts 241°
2026-04-24 08:24 38.74443 -109.53710 39924 ft 423 kts 240°
2026-04-24 08:25 38.71155 -109.59974 39922 ft 423 kts 240°
2026-04-24 08:25 38.67871 -109.66220 39927 ft 423 kts 240°
2026-04-24 08:26 38.64581 -109.72465 39927 ft 423 kts 240°
2026-04-24 08:26 38.61308 -109.78666 39927 ft 423 kts 240°
2026-04-24 08:27 38.58012 -109.84897 39922 ft 423 kts 240°
2026-04-24 08:27 38.54712 -109.91124 39922 ft 423 kts 240°
2026-04-24 08:28 38.51414 -109.97336 39916 ft 423 kts 240°
2026-04-24 08:28 38.48122 -110.03554 39922 ft 421 kts 241°
2026-04-24 08:29 38.44916 -110.09735 39915 ft 421 kts 241°
2026-04-24 08:29 38.41691 -110.15961 39911 ft 420 kts 241°
2026-04-24 08:30 38.38463 -110.22166 39915 ft 420 kts 241°
2026-04-24 08:30 38.35219 -110.28373 39917 ft 420 kts 241°
2026-04-24 08:31 38.32001 -110.34519 39921 ft 420 kts 241°
2026-04-24 08:31 38.28751 -110.40712 39913 ft 420 kts 241°
2026-04-24 08:32 38.25501 -110.46899 39912 ft 420 kts 241°
2026-04-24 08:32 38.22248 -110.53077 39924 ft 420 kts 241°
2026-04-24 08:33 38.19012 -110.59210 39917 ft 421 kts 241°
2026-04-24 08:33 38.15750 -110.65377 39911 ft 420 kts 241°
2026-04-24 08:34 38.12492 -110.71525 39917 ft 419 kts 241°
2026-04-24 08:34 38.09232 -110.77658 39917 ft 420 kts 241°
2026-04-24 08:35 38.05987 -110.83760 39919 ft 419 kts 241°
2026-04-24 08:35 38.02735 -110.89878 39910 ft 418 kts 241°
2026-04-24 08:36 37.99475 -110.95996 39909 ft 419 kts 241°
2026-04-24 08:36 37.96211 -111.02103 39913 ft 418 kts 241°
2026-04-24 08:37 37.92949 -111.08194 39910 ft 418 kts 240°
2026-04-24 08:37 37.89699 -111.14248 39900 ft 418 kts 240°
2026-04-24 08:38 37.86427 -111.20335 39911 ft 418 kts 240°
2026-04-24 08:38 37.83150 -111.26421 39886 ft 418 kts 240°
2026-04-24 08:39 37.79874 -111.32492 39915 ft 417 kts 240°
2026-04-24 08:39 37.76624 -111.38506 39917 ft 417 kts 240°
2026-04-24 08:40 37.73354 -111.44546 39917 ft 417 kts 240°
2026-04-24 08:40 37.70078 -111.50588 39917 ft 417 kts 240°
2026-04-24 08:41 37.66794 -111.56628 39928 ft 417 kts 240°
2026-04-24 08:41 37.63533 -111.62618 39929 ft 417 kts 240°
2026-04-24 08:42 37.60249 -111.68640 39922 ft 417 kts 240°
2026-04-24 08:42 37.56957 -111.74663 39933 ft 417 kts 240°
2026-04-24 08:43 37.53665 -111.80678 39944 ft 417 kts 240°
2026-04-24 08:43 37.50368 -111.86691 39966 ft 417 kts 240°
2026-04-24 08:44 37.47018 -111.92609 39959 ft 418 kts 238°
2026-04-24 08:44 37.43540 -111.98473 39963 ft 418 kts 238°
2026-04-24 08:45 37.40065 -112.04332 39949 ft 418 kts 238°
2026-04-24 08:45 37.36610 -112.10209 39968 ft 418 kts 239°
2026-04-24 08:46 37.33191 -112.16047 39955 ft 417 kts 239°
2026-04-24 08:46 37.29748 -112.21912 39948 ft 417 kts 239°
2026-04-24 08:47 37.26305 -112.27767 39955 ft 417 kts 238°
2026-04-24 08:47 37.22855 -112.33623 39959 ft 417 kts 238°
2026-04-24 08:48 37.19433 -112.39425 39960 ft 417 kts 238°
2026-04-24 08:48 37.15974 -112.45275 39959 ft 417 kts 238°
2026-04-24 08:49 37.12521 -112.51105 39960 ft 416 kts 238°
2026-04-24 08:49 37.09068 -112.56926 39960 ft 416 kts 238°
2026-04-24 08:50 37.05636 -112.62704 39960 ft 416 kts 238°
2026-04-24 08:50 37.02181 -112.68524 39961 ft 416 kts 238°
2026-04-24 08:51 36.98724 -112.74329 39956 ft 416 kts 238°
2026-04-24 08:51 36.95262 -112.80129 39956 ft 416 kts 238°
2026-04-24 08:52 36.91793 -112.85934 39953 ft 416 kts 238°
2026-04-24 08:52 36.88347 -112.91691 39955 ft 416 kts 238°
2026-04-24 08:53 36.84876 -112.97480 39953 ft 417 kts 238°
2026-04-24 08:53 36.81400 -113.03267 39923 ft 416 kts 238°
2026-04-24 08:54 36.77949 -113.09003 39949 ft 415 kts 238°
2026-04-24 08:54 36.74510 -113.14709 39938 ft 414 kts 238°
2026-04-24 08:55 36.71046 -113.20448 39941 ft 414 kts 238°
2026-04-24 08:55 36.67577 -113.26185 39922 ft 414 kts 238°
2026-04-24 08:56 36.64105 -113.31919 39927 ft 414 kts 238°
2026-04-24 08:56 36.60688 -113.37624 39909 ft 413 kts 239°
2026-04-24 08:57 36.57389 -113.43469 39905 ft 413 kts 240°
2026-04-24 08:57 36.54110 -113.49328 39892 ft 413 kts 239°
2026-04-24 08:58 36.50810 -113.55165 39885 ft 413 kts 239°
2026-04-24 08:58 36.47515 -113.60951 39883 ft 413 kts 239°
2026-04-24 08:59 36.44194 -113.66762 39865 ft 412 kts 239°
2026-04-24 08:59 36.40880 -113.72554 39870 ft 411 kts 239°
2026-04-24 09:00 36.37566 -113.78340 39861 ft 411 kts 239°
2026-04-24 09:00 36.34249 -113.84121 39862 ft 411 kts 239°
2026-04-24 09:01 36.30953 -113.89855 39853 ft 411 kts 239°
2026-04-24 09:01 36.27632 -113.95622 39851 ft 411 kts 239°
2026-04-24 09:02 36.24306 -114.01389 39846 ft 411 kts 239°
2026-04-24 09:02 36.21002 -114.07109 39837 ft 411 kts 239°
2026-04-24 09:03 36.17679 -114.12866 39849 ft 411 kts 239°
2026-04-24 09:03 36.14345 -114.18624 39836 ft 411 kts 239°
2026-04-24 09:04 36.11005 -114.24365 39836 ft 411 kts 239°
2026-04-24 09:04 36.07508 -114.29974 39829 ft 413 kts 235°
2026-04-24 09:05 36.03753 -114.35275 39833 ft 412 kts 234°
2026-04-24 09:05 35.99931 -114.40559 39830 ft 413 kts 234°
2026-04-24 09:06 35.96102 -114.45835 39843 ft 412 kts 234°
2026-04-24 09:06 35.92279 -114.51108 39857 ft 412 kts 234°
2026-04-24 09:07 35.88477 -114.56349 39876 ft 412 kts 234°
2026-04-24 09:07 35.82735 -114.64256 39893 ft 412 kts 234°
2026-04-24 09:08 35.78905 -114.69513 39899 ft 413 kts 234°
2026-04-24 09:08 35.75072 -114.74774 39898 ft 412 kts 234°
2026-04-24 09:09 35.71268 -114.79984 39932 ft 412 kts 234°
2026-04-24 09:09 35.67432 -114.85228 39936 ft 412 kts 234°
2026-04-24 09:10 35.63606 -114.90467 39936 ft 412 kts 234°
2026-04-24 09:10 35.59771 -114.95711 39935 ft 412 kts 234°
2026-04-24 09:11 35.55938 -115.00943 39929 ft 412 kts 234°
2026-04-24 09:11 35.52128 -115.06138 39949 ft 412 kts 234°
2026-04-24 09:12 35.48266 -115.11328 39949 ft 413 kts 232°
2026-04-24 09:12 35.44318 -115.16452 39949 ft 412 kts 233°
2026-04-24 09:13 35.40390 -115.21560 39965 ft 411 kts 233°
2026-04-24 09:13 35.36503 -115.26620 39966 ft 410 kts 233°
2026-04-24 09:14 35.32592 -115.31709 39980 ft 410 kts 233°
2026-04-24 09:14 35.28676 -115.36798 39969 ft 410 kts 233°
2026-04-24 09:15 35.24762 -115.41875 39985 ft 410 kts 233°
2026-04-24 09:15 35.20874 -115.46911 39985 ft 410 kts 233°
2026-04-24 09:16 35.16960 -115.51976 39985 ft 410 kts 233°
2026-04-24 09:16 35.13036 -115.57045 39961 ft 410 kts 232°
2026-04-24 09:17 35.09143 -115.62049 39982 ft 409 kts 232°
2026-04-24 09:17 35.05217 -115.67060 39967 ft 408 kts 232°
2026-04-24 09:18 35.01294 -115.72067 39971 ft 408 kts 232°
2026-04-24 09:18 34.97371 -115.77068 39963 ft 409 kts 232°
2026-04-24 09:19 34.93465 -115.82041 39956 ft 408 kts 232°
2026-04-24 09:19 34.89536 -115.87036 39954 ft 408 kts 232°
2026-04-24 09:20 34.85607 -115.92025 39942 ft 408 kts 232°
2026-04-24 09:20 34.81673 -115.97011 39937 ft 408 kts 232°
2026-04-24 09:21 34.77774 -116.01947 39935 ft 407 kts 232°
2026-04-24 09:21 34.73873 -116.06919 39943 ft 406 kts 232°
2026-04-24 09:22 34.69974 -116.11883 39938 ft 406 kts 232°
2026-04-24 09:22 34.66073 -116.16844 39917 ft 406 kts 232°
2026-04-24 09:23 34.64114 -116.19334 39683 ft 411 kts 232°
2026-04-24 09:23 34.62180 -116.21789 39359 ft 405 kts 232°
2026-04-24 09:23 34.60238 -116.24249 38865 ft 403 kts 232°
2026-04-24 09:23 34.58292 -116.26716 38140 ft 405 kts 232°
2026-04-24 09:24 34.56351 -116.29175 37474 ft 404 kts 232°
2026-04-24 09:24 34.54408 -116.31635 36837 ft 403 kts 232°
2026-04-24 09:24 34.52469 -116.34088 36183 ft 404 kts 232°
2026-04-24 09:24 34.50524 -116.36547 35498 ft 405 kts 232°
2026-04-24 09:25 34.48569 -116.39018 34865 ft 405 kts 232°
2026-04-24 09:25 34.46623 -116.41472 34340 ft 402 kts 232°
2026-04-24 09:25 34.44690 -116.43908 33810 ft 400 kts 232°
2026-04-24 09:25 34.42844 -116.46336 33265 ft 394 kts 236°
2026-04-24 09:26 34.41246 -116.48991 32755 ft 386 kts 243°
2026-04-24 09:26 34.39968 -116.51816 32246 ft 380 kts 247°
2026-04-24 09:26 34.38796 -116.54661 31752 ft 376 kts 247°
2026-04-24 09:26 34.37641 -116.57488 31260 ft 373 kts 247°
2026-04-24 09:27 34.36493 -116.60286 30776 ft 370 kts 247°
2026-04-24 09:27 34.35353 -116.63061 30297 ft 367 kts 247°
2026-04-24 09:27 34.34235 -116.65773 29911 ft 361 kts 247°
2026-04-24 09:27 34.33121 -116.68478 29368 ft 358 kts 247°
2026-04-24 09:28 34.32033 -116.71179 28861 ft 355 kts 248°
2026-04-24 09:28 34.30963 -116.73851 28381 ft 352 kts 248°
2026-04-24 09:28 34.29901 -116.76502 27896 ft 349 kts 247°
2026-04-24 09:28 34.28843 -116.79135 27401 ft 347 kts 247°
2026-04-24 09:29 34.27790 -116.81754 26913 ft 346 kts 247°
2026-04-24 09:29 34.26739 -116.84362 26416 ft 344 kts 247°
2026-04-24 09:29 34.25694 -116.86953 25928 ft 342 kts 247°
2026-04-24 09:29 34.24666 -116.89502 25444 ft 341 kts 246°
2026-04-24 09:30 34.23624 -116.92082 24945 ft 342 kts 246°
2026-04-24 09:30 34.22581 -116.94661 24431 ft 341 kts 246°
2026-04-24 09:30 34.21546 -116.97239 23933 ft 341 kts 247°
2026-04-24 09:30 34.20677 -116.99901 23406 ft 341 kts 252°
2026-04-24 09:31 34.19932 -117.02614 22850 ft 341 kts 253°
2026-04-24 09:31 34.19203 -117.05333 22320 ft 339 kts 253°
2026-04-24 09:31 34.18474 -117.08043 21803 ft 338 kts 253°
2026-04-24 09:31 34.17747 -117.10728 21291 ft 337 kts 253°
2026-04-24 09:32 34.17019 -117.13416 20776 ft 336 kts 253°
2026-04-24 09:32 34.16305 -117.16060 20251 ft 335 kts 253°
2026-04-24 09:32 34.15578 -117.18728 19743 ft 335 kts 252°
2026-04-24 09:32 34.14844 -117.21395 19257 ft 334 kts 252°
2026-04-24 09:33 34.14108 -117.24062 18729 ft 335 kts 252°
2026-04-24 09:33 34.13373 -117.26724 18177 ft 334 kts 252°
2026-04-24 09:33 34.12641 -117.29376 17623 ft 332 kts 252°
2026-04-24 09:33 34.11915 -117.32004 17086 ft 329 kts 252°
2026-04-24 09:34 34.11193 -117.34616 16585 ft 327 kts 253°
2026-04-24 09:34 34.10487 -117.37173 16063 ft 325 kts 253°
2026-04-24 09:34 34.09809 -117.39760 15603 ft 321 kts 254°
2026-04-24 09:34 34.09184 -117.42299 15353 ft 310 kts 255°
2026-04-24 09:35 34.08573 -117.44778 15084 ft 309 kts 255°
2026-04-24 09:35 34.07957 -117.47267 14685 ft 310 kts 255°
2026-04-24 09:35 34.07309 -117.49735 14058 ft 306 kts 251°
2026-04-24 09:35 34.06504 -117.52119 13648 ft 310 kts 249°
2026-04-24 09:36 34.05649 -117.54508 13243 ft 309 kts 248°
2026-04-24 09:36 34.04797 -117.56869 12832 ft 306 kts 248°
2026-04-24 09:36 34.03962 -117.59184 12459 ft 304 kts 248°
2026-04-24 09:36 34.03119 -117.61524 12089 ft 304 kts 248°
2026-04-24 09:37 34.02280 -117.63853 11695 ft 303 kts 248°
2026-04-24 09:37 34.01441 -117.66180 11339 ft 302 kts 248°
2026-04-24 09:37 34.00733 -117.68516 11039 ft 294 kts 257°
2026-04-24 09:37 34.00392 -117.70961 10616 ft 298 kts 263°
2026-04-24 09:38 34.00158 -117.73446 10325 ft 299 kts 264°
2026-04-24 09:38 33.99929 -117.75935 9990 ft 297 kts 264°
2026-04-24 09:38 33.99702 -117.78353 9475 ft 284 kts 263°
2026-04-24 09:38 33.99471 -117.80727 9099 ft 287 kts 263°
2026-04-24 09:39 33.99244 -117.83068 8725 ft 281 kts 264°
2026-04-24 09:39 33.99020 -117.85404 8396 ft 279 kts 263°
2026-04-24 09:39 33.98798 -117.87686 8120 ft 272 kts 263°
2026-04-24 09:39 33.98579 -117.89931 7845 ft 265 kts 263°
2026-04-24 09:40 33.98371 -117.92060 7612 ft 246 kts 263°
2026-04-24 09:40 33.98172 -117.94063 7203 ft 237 kts 263°
2026-04-24 09:40 33.97980 -117.96007 6804 ft 230 kts 263°
2026-04-24 09:40 33.97792 -117.97905 6476 ft 228 kts 263°
2026-04-24 09:41 33.97607 -117.99782 6186 ft 229 kts 263°
2026-04-24 09:41 33.97419 -118.01680 5894 ft 228 kts 263°
2026-04-24 09:41 33.97231 -118.03570 5595 ft 227 kts 263°
2026-04-24 09:41 33.97044 -118.05447 5333 ft 221 kts 263°
2026-04-24 09:42 33.96868 -118.07222 5101 ft 207 kts 263°
2026-04-24 09:42 33.96704 -118.08905 4877 ft 198 kts 264°
2026-04-24 09:42 33.96545 -118.10491 4641 ft 185 kts 264°
2026-04-24 09:42 33.96396 -118.11976 4406 ft 173 kts 263°
2026-04-24 09:43 33.96255 -118.13382 4155 ft 167 kts 263°
2026-04-24 09:43 33.96117 -118.14764 3745 ft 170 kts 263°
2026-04-24 09:43 33.95974 -118.16197 3301 ft 174 kts 263°
2026-04-24 09:43 33.95833 -118.17647 3017 ft 168 kts 262°
2026-04-24 09:44 33.95698 -118.18979 2973 ft 153 kts 262°
2026-04-24 09:44 33.95572 -118.20207 2960 ft 145 kts 262°
2026-04-24 09:44 33.95448 -118.21420 2865 ft 147 kts 262°
2026-04-24 09:44 33.95324 -118.22632 2665 ft 149 kts 262°
2026-04-24 09:45 33.95196 -118.23889 2377 ft 154 kts 262°
2026-04-24 09:45 33.95064 -118.25189 2080 ft 159 kts 262°
2026-04-24 09:45 33.94935 -118.26505 1902 ft 154 kts 262°
2026-04-24 09:45 33.94812 -118.27736 1870 ft 144 kts 262°
2026-04-24 09:46 33.94692 -118.28927 1687 ft 142 kts 261°
2026-04-24 09:46 33.94574 -118.30077 1476 ft 136 kts 261°
2026-04-24 09:46 33.94458 -118.31207 1315 ft 136 kts 261°
2026-04-24 09:46 33.94344 -118.32322 1132 ft 136 kts 262°
2026-04-24 09:47 33.94228 -118.33452 953 ft 136 kts 262°
2026-04-24 09:47 33.94113 -118.34577 778 ft 135 kts 263°
2026-04-24 09:47 33.93998 -118.35696 596 ft 134 kts 263°
2026-04-24 09:47 33.93885 -118.36806 412 ft 133 kts 263°
2026-04-24 09:48 33.93773 -118.37910 260 ft 132 kts 263°
2026-04-24 09:48 33.93655 -118.39010 151 ft 131 kts 263°
2026-04-24 09:48 33.93591 -118.39709 133 ft 118 kts 263°
2026-04-24 09:48 33.93528 -118.40436 128 ft 34 kts 274°
2026-04-24 09:49 33.93568 -118.40570 125 ft 0 kts 296°
2026-04-24 09:49 33.93569 -118.40571 125 ft 0 kts 296°
2026-04-24 09:49 33.93571 -118.40578 124 ft 3 kts 296°
2026-04-24 09:49 33.93589 -118.40640 127 ft 10 kts 281°
2026-04-24 09:50 33.93590 -118.40736 132 ft 13 kts 268°
2026-04-24 09:50 33.93601 -118.40839 121 ft 10 kts 298°
2026-04-24 09:50 33.93653 -118.40887 127 ft 10 kts 339°
2026-04-24 09:50 33.93703 -118.40899 129 ft 12 kts 352°
2026-04-24 09:51 33.93788 -118.40912 130 ft 13 kts 353°
2026-04-24 09:51 33.93850 -118.40933 126 ft 1 kts 298°
2026-04-24 09:51 33.93857 -118.40978 121 ft 11 kts 270°
2026-04-24 09:51 33.93848 -118.41104 132 ft 15 kts 265°
2026-04-24 09:52 33.93870 -118.41166 128 ft 9 kts 322°
2026-04-24 09:52 33.93917 -118.41172 126 ft 8 kts 355°
2026-04-24 09:52 33.93985 -118.41179 129 ft 12 kts 355°
2026-04-24 09:52 33.94076 -118.41195 129 ft 15 kts 351°
2026-04-24 09:53 33.94231 -118.41218 130 ft 19 kts 354°
2026-04-24 09:53 33.94368 -118.41235 129 ft 20 kts 353°
2026-04-24 09:53 33.94486 -118.41255 127 ft 16 kts 351°
2026-04-24 09:53 33.94604 -118.41274 130 ft 18 kts 353°
2026-04-24 09:54 33.94665 -118.41281 126 ft 4 kts
2026-04-24 09:54 33.94694 -118.41254 124 ft 7 kts 55°
2026-04-24 09:54 33.94716 -118.41192 125 ft 10 kts 70°
2026-04-24 09:54 33.94732 -118.41102 128 ft 13 kts 83°
2026-04-24 09:55 33.94738 -118.41045 132 ft 0 kts 83°
2026-04-24 09:55 33.94738 -118.41042 132 ft 1 kts 83°
2026-04-24 09:55 33.94738 -118.41037 132 ft 2 kts 83°
2026-04-24 09:55 33.94744 -118.40983 132 ft 9 kts 83°
2026-04-24 09:56 33.94713 -118.40918 130 ft 10 kts 153°
2026-04-24 09:56 33.94631 -118.40900 124 ft 14 kts 175°
2026-04-24 09:56 33.94530 -118.40898 130 ft 13 kts 195°
2026-04-24 09:56 33.94485 -118.40928 121 ft 0 kts 226°
2026-04-24 09:57 33.94477 -118.40942 124 ft 5 kts 239°
2026-04-24 09:57 33.94471 -118.40969 123 ft 4 kts 260°
2026-04-24 09:57 33.94469 -118.40981 127 ft 0 kts 261°
2026-04-24 09:58 33.94468 -118.40976 132 ft 0 kts 264°
2026-04-24 09:59 33.94467 -118.40987 121 ft 0 kts 264°
2026-04-24 09:59 33.94468 -118.40976 132 ft 0 kts 264°
2026-04-24 09:59 33.94468 -118.40981 132 ft 0 kts 264°